M I D A S
Marine Information and Data Acquisition System
Tripno 1993 of the Zeeleeuw from 2010-07-06 06:52:40 to 2010-07-06 13:51:27
Back to CruiseResearch ActivitiesStationsMapUnderway DataData graphs

EquipmentUnitsComment
TimeDGPSUTC
LatitudeDGPSDM.mWGS84
LongitudeDGPSDM.mWGS84
TemperatureSBE03/SBE38deg celciusITS90
ConductivitySBE21S/mITS90
SalinitySBE21 Practical Salinity Units
ChlorophylAChelsea fluorimeterg/lCalibrated in Aceton
Missing or incorrect values are displayed as -999
Sea surface data collected by the RV Zeeleeuw from 2010-07-06 06:44:44 to 2010-07-06 13:54:39
                                                                                    Next 1000 lines
Time Latitude Longitude Temperature Conductivity Salinity ChlorophylA
2010-07-06 06:44:54 51°13.662 2°55.957 22.6606 0.069428 0.365579 -1.000568
2010-07-06 06:44:59 51°13.663 2°55.955 22.7136 0.069428 0.365579 -1.000568
2010-07-06 06:45:04 51°13.663 2°55.953 22.7202 0.069428 0.365573 -1.000568
2010-07-06 06:45:09 51°13.664 2°55.95 22.7098 0.069428 0.365573 -1.000568
2010-07-06 06:45:14 51°13.665 2°55.946 22.7222 0.069428 0.365584 -1.000568
2010-07-06 06:45:19 51°13.666 2°55.943 22.7118 0.069428 0.365579 -1.000568
2010-07-06 06:45:25 51°13.667 2°55.938 22.7143 0.069428 0.365584 -1.035392
2010-07-06 06:45:31 51°13.669 2°55.932 22.7134 0.069428 0.365584 -1.000568
2010-07-06 06:45:37 51°13.67 2°55.926 22.7164 0.069428 0.365584 -1.000568
2010-07-06 06:45:42 51°13.672 2°55.921 22.7119 0.069428 0.36559 -1.000568
2010-07-06 06:45:47 51°13.674 2°55.916 22.7282 0.069428 0.365596 -1.035392
2010-07-06 06:45:52 51°13.675 2°55.91 22.7319 0.069428 0.365596 -1.000568
2010-07-06 06:45:58 51°13.678 2°55.902 22.715 0.069428 0.365601 -1.000568
2010-07-06 06:46:03 51°13.68 2°55.895 22.7146 0.069428 0.365584 -1.000568
2010-07-06 06:46:08 51°13.682 2°55.887 22.7215 0.069428 0.365568 -1.000568
2010-07-06 06:46:13 51°13.684 2°55.88 22.7189 0.069428 0.365568 -1.000568
2010-07-06 06:46:18 51°13.687 2°55.872 22.7271 0.069428 0.365556 -1.000568
2010-07-06 06:46:22 51°13.689 2°55.866 22.7156 0.069428 0.365556 -1.000568
2010-07-06 06:46:28 51°13.692 2°55.856 22.7198 0.069428 0.365584 -1.000568
2010-07-06 06:46:33 51°13.695 2°55.848 22.7267 0.069428 0.365612 -1.000568
2010-07-06 06:46:38 51°13.698 2°55.84 22.73 0.069428 0.365612 -1.000568
2010-07-06 06:46:42 51°13.701 2°55.834 22.728 0.069428 0.365646 -0.965744
2010-07-06 06:46:48 51°13.705 2°55.824 22.7287 0.069428 0.365652 -0.965744
2010-07-06 06:46:53 51°13.708 2°55.816 22.7253 0.069428 0.365663 -1.035392
2010-07-06 06:46:58 51°13.712 2°55.809 22.7261 0.069428 0.365652 -1.000568
2010-07-06 06:47:02 51°13.715 2°55.803 22.7243 0.069428 0.365629 -0.965744
2010-07-06 06:47:07 51°13.719 2°55.795 22.7245 0.069428 0.365629 -0.965744
2010-07-06 06:47:13 51°13.724 2°55.787 22.7215 0.069428 0.365612 -0.965744
2010-07-06 06:47:18 51°13.729 2°55.78 22.7263 0.069428 0.365612 -0.965744
2010-07-06 06:47:22 51°13.732 2°55.774 22.7382 0.069428 0.365612 -1.000568
2010-07-06 06:47:28 51°13.737 2°55.767 22.7385 0.069428 0.365618 -0.965744
2010-07-06 06:47:33 51°13.74 2°55.762 22.7236 0.069428 0.365635 -1.000568
2010-07-06 06:47:38 51°13.743 2°55.758 22.7509 0.069428 0.365646 -1.000568
2010-07-06 06:47:42 51°13.744 2°55.756 22.726 0.069428 0.365646 -1.000568
2010-07-06 06:47:48 51°13.747 2°55.752 22.6657 0.069428 0.365657 -1.000568
2010-07-06 06:47:53 51°13.749 2°55.748 22.6852 0.069428 0.365668 -1.000568
2010-07-06 06:47:57 51°13.751 2°55.745 22.702 0.069428 0.365668 -0.965744
2010-07-06 06:48:02 51°13.754 2°55.74 22.7251 0.069428 0.365663 -1.000568
2010-07-06 06:48:07 51°13.757 2°55.735 22.7274 0.069428 0.365663 -1.035392
2010-07-06 06:48:13 51°13.761 2°55.728 22.7225 0.069428 0.365663 -1.035392
2010-07-06 06:48:18 51°13.765 2°55.723 22.7044 0.069428 0.365646 -1.000568
2010-07-06 06:48:22 51°13.768 2°55.718 22.7052 0.069428 0.36564 -1.000568
2010-07-06 06:48:28 51°13.773 2°55.71 22.7029 0.069428 0.36564 -1.000568
2010-07-06 06:48:33 51°13.777 2°55.704 22.7149 0.069428 0.365646 -1.000568
2010-07-06 06:48:38 51°13.782 2°55.697 22.7249 0.069428 0.365652 -0.965744
2010-07-06 06:48:42 51°13.786 2°55.691 22.7187 0.069428 0.365652 -0.965744
2010-07-06 06:48:48 51°13.792 2°55.683 22.7478 0.069428 0.365657 -1.000568
2010-07-06 06:48:53 51°13.797 2°55.677 22.7343 0.069428 0.365663 -1.000568
2010-07-06 06:48:58 51°13.802 2°55.671 22.7354 0.069428 0.365668 -1.035392
2010-07-06 06:49:02 51°13.806 2°55.667 22.7278 0.069428 0.36568 -1.000568
2010-07-06 06:49:08 51°13.813 2°55.661 22.7302 0.069428 0.36568 -1.000568
2010-07-06 06:49:13 51°13.819 2°55.656 22.7274 0.069428 0.36568 -1.000568
2010-07-06 06:49:18 51°13.825 2°55.653 22.7249 0.069428 0.36568 -1.035392
2010-07-06 06:49:22 51°13.83 2°55.65 22.7415 0.069428 0.365685 -1.000568
2010-07-06 06:49:28 51°13.837 2°55.646 22.7349 0.069428 0.365685 -1.000568
2010-07-06 06:49:33 51°13.843 2°55.644 22.7351 0.069428 0.365691 -1.035392
2010-07-06 06:49:38 51°13.85 2°55.642 22.732 0.069428 0.365696 -1.000568
2010-07-06 06:49:42 51°13.855 2°55.641 22.7323 0.069428 0.365696 -1.000568
2010-07-06 06:49:48 51°13.863 2°55.64 22.737 0.069428 0.365702 -0.965744
2010-07-06 06:49:53 51°13.869 2°55.64 22.7379 0.069428 0.365696 -1.000568
2010-07-06 06:49:57 51°13.875 2°55.64 22.7318 0.069428 0.365708 -1.000568
2010-07-06 06:50:02 51°13.881 2°55.64 22.737 0.069428 0.365696 -0.965744
2010-07-06 06:50:08 51°13.889 2°55.642 22.7376 0.069428 0.365696 -0.965744
2010-07-06 06:50:13 51°13.896 2°55.643 22.7379 0.069428 0.365696 -0.965744
2010-07-06 06:50:18 51°13.902 2°55.646 22.7306 0.069428 0.365708 -1.035392
2010-07-06 06:50:22 51°13.907 2°55.648 22.7277 0.069428 0.365708 -1.000568
2010-07-06 06:50:28 51°13.914 2°55.652 22.7484 0.069428 0.365719 -1.000568
2010-07-06 06:50:33 51°13.92 2°55.655 22.7407 0.069428 0.365719 -1.035392
2010-07-06 06:50:37 51°13.924 2°55.658 22.7477 0.069428 0.365719 -1.035392
2010-07-06 06:50:42 51°13.929 2°55.661 22.7321 0.069428 0.365719 -0.965744
2010-07-06 06:50:47 51°13.933 2°55.664 22.7343 0.069428 0.365724 -1.000568
2010-07-06 06:50:53 51°13.937 2°55.667 22.711 0.069428 0.365719 -1.000568
2010-07-06 06:50:57 51°13.939 2°55.669 22.7251 0.069428 0.365719 -1.000568
2010-07-06 06:51:02 51°13.941 2°55.671 22.7113 0.069428 0.365713 -1.000568
2010-07-06 06:51:07 51°13.943 2°55.673 22.7301 0.069428 0.365713 -1.000568
2010-07-06 06:51:13 51°13.943 2°55.673 22.7295 0.069428 0.365713 -1.000568
2010-07-06 06:51:18 51°13.944 2°55.673 22.7409 0.069428 0.365713 -0.965744
2010-07-06 06:51:22 51°13.943 2°55.672 22.7259 0.069428 0.365719 -1.000568
2010-07-06 06:51:27 51°13.943 2°55.669 22.6296 0.069428 0.365719 -1.000568
2010-07-06 06:51:33 51°13.941 2°55.665 22.6831 0.069428 0.365713 -1.000568
2010-07-06 06:51:38 51°13.941 2°55.66 22.5677 0.069428 0.365713 -1.000568
2010-07-06 06:51:42 51°13.94 2°55.656 22.5682 0.069428 0.365713 -1.000568
2010-07-06 06:51:47 51°13.94 2°55.65 22.523 0.069428 0.365724 -1.035392
2010-07-06 06:51:52 51°13.94 2°55.643 22.4913 0.069428 0.36554 -0.965744
2010-07-06 06:51:57 51°13.941 2°55.635 22.5093 0.069428 0.365294 -1.035392
2010-07-06 06:52:02 51°13.942 2°55.628 22.5235 0.069428 0.365204 -1.000568
2010-07-06 06:52:06 51°13.944 2°55.622 22.5063 0.069428 0.365204 -1.000568
2010-07-06 06:52:11 51°13.946 2°55.614 22.5707 0.069428 0.365193 -1.000568
2010-07-06 06:52:16 51°13.949 2°55.606 22.6179 0.069428 0.365143 -0.965744
2010-07-06 06:52:21 51°13.953 2°55.598 22.6535 0.069428 0.365182 -1.000568
2010-07-06 06:52:26 51°13.958 2°55.59 22.6692 0.069428 0.365227 -1.000568
2010-07-06 06:52:30 51°13.962 2°55.584 22.6658 0.069428 0.365271 -1.035392
2010-07-06 06:52:35 51°13.968 2°55.575 22.6676 0.069428 0.365271 -1.035392
2010-07-06 06:52:40 51°13.974 2°55.566 22.6408 0.069428 0.365294 -1.000568
2010-07-06 06:52:45 51°13.981 2°55.557 22.6433 0.069428 0.365322 -1.000568
2010-07-06 06:52:50 51°13.989 2°55.549 22.6403 0.069428 0.36535 -1.000568
2010-07-06 06:52:54 51°13.995 2°55.542 22.6477 0.069428 0.365383 -1.000568
2010-07-06 06:52:59 51°14.004 2°55.532 22.6413 0.069428 0.365411 -1.000568
2010-07-06 06:53:05 51°14.014 2°55.521 22.6432 0.069428 0.365428 -1.000568
2010-07-06 06:53:10 51°14.024 2°55.512 22.636 0.069428 0.365428 -1.000568
2010-07-06 06:53:14 51°14.031 2°55.505 22.636 0.069428 0.365428 -1.035392
2010-07-06 06:53:19 51°14.041 2°55.496 22.637 0.069532 0.365976 -1.000568
2010-07-06 06:53:24 51°14.051 2°55.486 22.6492 0.069428 0.3654 -0.965744
2010-07-06 06:53:29 51°14.062 2°55.477 22.6505 0.069532 0.365931 -1.000568
2010-07-06 06:53:34 51°14.072 2°55.468 22.6495 0.069532 0.365914 -1.000568
2010-07-06 06:53:38 51°14.081 2°55.46 22.6486 0.069532 0.365914 -1.000568
2010-07-06 06:53:44 51°14.094 2°55.449 22.6364 0.069428 0.365344 -1.000568
2010-07-06 06:53:49 51°14.105 2°55.439 22.6287 0.069532 0.365903 -1.000568
2010-07-06 06:53:54 51°14.117 2°55.429 22.6198 0.069428 0.36535 -1.000568
2010-07-06 06:53:59 51°14.129 2°55.42 22.6085 0.069532 0.365925 -1.000568
2010-07-06 06:54:04 51°14.14 2°55.41 22.6172 0.069428 0.36535 -0.965744
2010-07-06 06:54:09 51°14.153 2°55.4 22.6438 0.069428 0.36535 -0.965744
2010-07-06 06:54:14 51°14.165 2°55.39 22.6536 0.069428 0.365338 -1.000568
2010-07-06 06:54:19 51°14.177 2°55.38 22.6588 0.069532 0.365892 -1.000568
2010-07-06 06:54:24 51°14.189 2°55.371 22.6429 0.069428 0.365333 -1.000568
2010-07-06 06:54:29 51°14.201 2°55.36 22.6239 0.069532 0.365869 -1.000568
2010-07-06 06:54:34 51°14.213 2°55.349 22.6326 0.069532 0.365869 -1.000568
2010-07-06 06:54:39 51°14.225 2°55.338 22.6164 0.069532 0.365847 -1.000568
2010-07-06 06:54:44 51°14.238 2°55.328 22.6677 0.069532 0.365825 -1.000568
2010-07-06 06:54:49 51°14.25 2°55.317 22.6607 0.069532 0.365808 -0.965744
2010-07-06 06:54:54 51°14.262 2°55.306 22.6722 0.069532 0.365814 -0.965744
2010-07-06 06:54:59 51°14.274 2°55.295 22.6513 0.069532 0.365819 -0.965744
2010-07-06 06:55:04 51°14.287 2°55.283 22.6615 0.069532 0.365819 -1.000568
2010-07-06 06:55:09 51°14.299 2°55.272 22.6396 0.069532 0.365819 -1.000568
2010-07-06 06:55:14 51°14.311 2°55.26 22.6433 0.069532 0.365802 -1.000568
2010-07-06 06:55:19 51°14.324 2°55.249 22.6658 0.069532 0.365802 -1.000568
2010-07-06 06:55:24 51°14.336 2°55.237 22.68 0.069532 0.365802 -0.965744
2010-07-06 06:55:29 51°14.349 2°55.225 22.6252 0.069532 0.365797 -0.965744
2010-07-06 06:55:34 51°14.361 2°55.213 22.6281 0.069532 0.36578 -1.000568
2010-07-06 06:55:38 51°14.371 2°55.204 22.622 0.069532 0.36578 -1.000568
2010-07-06 06:55:43 51°14.384 2°55.192 22.6696 0.069532 0.365746 -0.965744
2010-07-06 06:55:49 51°14.399 2°55.177 22.6393 0.069532 0.365802 -0.965744
2010-07-06 06:55:54 51°14.411 2°55.165 22.6653 0.069532 0.365814 -0.965744
2010-07-06 06:55:58 51°14.421 2°55.156 22.6383 0.069532 0.365802 -1.000568
2010-07-06 06:56:04 51°14.436 2°55.141 22.6638 0.069532 0.365802 -1.000568
2010-07-06 06:56:09 51°14.449 2°55.129 22.6491 0.069532 0.36578 -1.000568
2010-07-06 06:56:14 51°14.462 2°55.117 22.6425 0.069532 0.365786 -0.965744
2010-07-06 06:56:18 51°14.472 2°55.108 22.6464 0.069532 0.365786 -0.965744
2010-07-06 06:56:24 51°14.488 2°55.094 22.6461 0.069532 0.365825 -0.965744
2010-07-06 06:56:28 51°14.499 2°55.085 22.6486 0.069532 0.365836 -1.000568
2010-07-06 06:56:34 51°14.514 2°55.071 22.6698 0.069532 0.365842 -1.000568
2010-07-06 06:56:38 51°14.525 2°55.061 22.6215 0.069532 0.365842 -1.000568
2010-07-06 06:56:44 51°14.541 2°55.047 22.68 0.069532 0.36578 -0.965744
2010-07-06 06:56:49 51°14.556 2°55.037 22.6891 0.069532 0.365791 -1.000568
2010-07-06 06:56:54 51°14.57 2°55.026 22.6503 0.069532 0.365897 -0.965744
2010-07-06 06:56:58 51°14.581 2°55.016 22.6633 0.069532 0.365959 -0.965744
2010-07-06 06:57:03 51°14.596 2°55.004 22.645 0.069532 0.365886 -1.000568
2010-07-06 06:57:08 51°14.61 2°54.991 22.6136 0.069532 0.365886 -1.000568
2010-07-06 06:57:14 51°14.627 2°54.975 22.5787 0.069532 0.365881 -1.000568
2010-07-06 06:57:18 51°14.638 2°54.963 22.657 0.069532 0.365702 -1.000568
2010-07-06 06:57:24 51°14.655 2°54.945 22.605 0.069532 0.365685 -1.000568
2010-07-06 06:57:29 51°14.668 2°54.929 22.6212 0.069532 0.365674 -1.000568
2010-07-06 06:57:34 51°14.682 2°54.913 22.6202 0.069532 0.365657 -1.000568
2010-07-06 06:57:39 51°14.695 2°54.897 22.5663 0.069532 0.365657 -1.000568
2010-07-06 06:57:44 51°14.709 2°54.88 22.6248 0.069532 0.365646 -1.000568
2010-07-06 06:57:49 51°14.723 2°54.864 22.6132 0.069532 0.365719 -1.000568
2010-07-06 06:57:54 51°14.737 2°54.847 22.6278 0.069532 0.365825 -1.035392
2010-07-06 06:57:59 51°14.751 2°54.83 22.625 0.069532 0.365808 -1.000568
2010-07-06 06:58:03 51°14.763 2°54.816 22.6425 0.069532 0.365808 -1.000568
2010-07-06 06:58:09 51°14.78 2°54.796 22.5902 0.069532 0.365802 -1.000568
2010-07-06 06:58:14 51°14.794 2°54.778 22.6411 0.069532 0.365786 -1.000568
2010-07-06 06:58:19 51°14.808 2°54.761 22.6419 0.069532 0.365786 -1.000568
2010-07-06 06:58:24 51°14.823 2°54.743 22.6132 0.069532 0.365853 -1.000568
2010-07-06 06:58:29 51°14.837 2°54.725 22.5971 0.069532 0.365808 -1.000568
2010-07-06 06:58:34 51°14.852 2°54.707 22.6495 0.069532 0.365836 -0.965744
2010-07-06 06:58:39 51°14.867 2°54.689 22.6173 0.069532 0.365836 -0.965744
2010-07-06 06:58:44 51°14.881 2°54.672 22.6137 0.069532 0.365797 -1.035392
2010-07-06 06:58:49 51°14.896 2°54.654 22.6347 0.069532 0.365853 -1.000568
2010-07-06 06:58:54 51°14.911 2°54.636 22.6418 0.069532 0.365814 -0.965744
2010-07-06 06:58:59 51°14.925 2°54.618 22.6283 0.069532 0.365825 -1.000568
2010-07-06 06:59:04 51°14.94 2°54.601 22.6655 0.069532 0.365797 -1.000568
2010-07-06 06:59:09 51°14.955 2°54.583 22.6106 0.069532 0.365797 -1.000568
2010-07-06 06:59:14 51°14.969 2°54.566 22.6315 0.069532 0.365864 -1.035392
2010-07-06 06:59:19 51°14.984 2°54.549 22.6318 0.069532 0.365858 -0.965744
2010-07-06 06:59:24 51°14.999 2°54.531 22.6381 0.069532 0.365847 -1.000568
2010-07-06 06:59:29 51°15.014 2°54.514 22.6439 0.069532 0.365853 -1.000568
2010-07-06 06:59:34 51°15.029 2°54.496 22.6466 0.069532 0.365853 -1.000568
2010-07-06 06:59:39 51°15.043 2°54.478 22.6402 0.069532 0.365797 -1.000568
2010-07-06 06:59:44 51°15.057 2°54.459 22.6451 0.069532 0.365858 -1.000568
2010-07-06 06:59:49 51°15.072 2°54.441 22.6404 0.069532 0.365825 -1.000568
2010-07-06 06:59:54 51°15.086 2°54.422 22.6311 0.069532 0.365847 -1.000568
2010-07-06 06:59:59 51°15.1 2°54.404 22.6322 0.069532 0.365819 -1.000568
2010-07-06 07:00:03 51°15.112 2°54.389 22.6381 0.069532 0.365819 -1.000568
2010-07-06 07:00:09 51°15.13 2°54.367 22.5851 0.069532 0.365892 -1.000568
2010-07-06 07:00:14 51°15.145 2°54.351 22.6377 0.069532 0.365847 -1.000568
2010-07-06 07:00:19 51°15.16 2°54.333 22.6336 0.069532 0.365903 -1.000568
2010-07-06 07:00:24 51°15.176 2°54.318 22.652 0.069532 0.365897 -1.000568
2010-07-06 07:00:29 51°15.191 2°54.301 22.6358 0.069532 0.365897 -1.000568
2010-07-06 07:00:34 51°15.207 2°54.286 22.6588 0.069532 0.36592 -1.000568
2010-07-06 07:00:39 51°15.222 2°54.27 22.6579 0.069532 0.36592 -1.000568
2010-07-06 07:00:44 51°15.238 2°54.254 22.6595 0.069532 0.36592 -0.965744
2010-07-06 07:00:49 51°15.254 2°54.238 22.6552 0.069532 0.365909 -1.035392
2010-07-06 07:00:54 51°15.27 2°54.223 22.6515 0.069532 0.365881 -1.000568
2010-07-06 07:00:59 51°15.285 2°54.207 22.6478 0.069532 0.365903 -1.000568
2010-07-06 07:01:04 51°15.301 2°54.191 22.6384 0.069532 0.365903 -1.000568
2010-07-06 07:01:09 51°15.316 2°54.174 22.6163 0.069532 0.365892 -1.000568
2010-07-06 07:01:14 51°15.331 2°54.158 22.6514 0.069532 0.365847 -1.000568
2010-07-06 07:01:19 51°15.346 2°54.141 22.6476 0.069532 0.365948 -0.965744
2010-07-06 07:01:24 51°15.362 2°54.125 22.618 0.069532 0.365953 -1.000568
2010-07-06 07:01:29 51°15.377 2°54.107 22.6221 0.069532 0.365931 -1.000568
2010-07-06 07:01:34 51°15.392 2°54.091 22.6257 0.069532 0.365931 -1.000568
2010-07-06 07:01:39 51°15.407 2°54.073 22.6502 0.069532 0.36597 -1.000568
2010-07-06 07:01:44 51°15.422 2°54.056 22.6548 0.069532 0.365909 -0.965744
2010-07-06 07:01:49 51°15.437 2°54.039 22.6698 0.069532 0.365948 -1.035392
2010-07-06 07:01:54 51°15.452 2°54.022 22.6763 0.069428 0.365366 -1.000568
2010-07-06 07:01:59 51°15.467 2°54.004 22.6345 0.069532 0.365998 -1.035392
2010-07-06 07:02:04 51°15.481 2°53.986 22.6595 0.069532 0.365998 -1.000568
2010-07-06 07:02:09 51°15.495 2°53.968 22.624 0.069532 0.365998 -1.000568
2010-07-06 07:02:14 51°15.51 2°53.95 22.6505 0.069532 0.365987 -1.000568
2010-07-06 07:02:19 51°15.524 2°53.931 22.606 0.069532 0.36606 -1.035392
2010-07-06 07:02:23 51°15.535 2°53.916 22.6677 0.069532 0.366004 -1.000568
2010-07-06 07:02:29 51°15.552 2°53.894 22.6306 0.069532 0.36606 -1.035392
2010-07-06 07:02:34 51°15.567 2°53.875 22.6482 0.069532 0.366015 -1.000568
2010-07-06 07:02:39 51°15.581 2°53.856 22.6519 0.069532 0.366015 -1.000568
2010-07-06 07:02:44 51°15.595 2°53.838 22.6358 0.069532 0.366009 -1.000568
2010-07-06 07:02:49 51°15.609 2°53.819 22.6426 0.069532 0.366004 -1.000568
2010-07-06 07:02:54 51°15.623 2°53.8 22.6227 0.069532 0.365998 -1.000568
2010-07-06 07:02:59 51°15.637 2°53.781 22.653 0.069532 0.366021 -1.000568
2010-07-06 07:03:04 51°15.652 2°53.763 22.6374 0.069532 0.366021 -1.000568
2010-07-06 07:03:09 51°15.666 2°53.745 22.6458 0.069532 0.366065 -0.965744
2010-07-06 07:03:14 51°15.68 2°53.726 22.6558 0.069532 0.366037 -1.000568
2010-07-06 07:03:19 51°15.694 2°53.708 22.667 0.069428 0.365489 -1.035392
2010-07-06 07:03:23 51°15.706 2°53.693 22.648 0.069532 0.366043 -1.000568
2010-07-06 07:03:29 51°15.723 2°53.671 22.6723 0.069532 0.366043 -1.035392
2010-07-06 07:03:34 51°15.737 2°53.652 22.6527 0.069532 0.366043 -1.035392
2010-07-06 07:03:39 51°15.751 2°53.634 22.6529 0.069428 0.365456 -1.000568
2010-07-06 07:03:44 51°15.765 2°53.615 22.6335 0.069428 0.365495 -1.000568
2010-07-06 07:03:49 51°15.779 2°53.597 22.6494 0.069532 0.36606 -1.000568
2010-07-06 07:03:54 51°15.794 2°53.578 22.646 0.069532 0.366065 -1.000568
2010-07-06 07:03:59 51°15.808 2°53.56 22.616 0.069532 0.366054 -1.035392
2010-07-06 07:04:04 51°15.822 2°53.542 22.6114 0.069532 0.366088 -1.035392
2010-07-06 07:04:09 51°15.837 2°53.523 22.5913 0.069532 0.366088 -1.035392
2010-07-06 07:04:14 51°15.852 2°53.508 22.64 0.069428 0.365428 -1.000568
2010-07-06 07:04:19 51°15.867 2°53.491 22.6249 0.069532 0.366082 -0.965744
2010-07-06 07:04:24 51°15.883 2°53.477 22.6635 0.069428 0.365456 -1.035392
2010-07-06 07:04:29 51°15.899 2°53.462 22.6014 0.069532 0.366004 -0.965744
2010-07-06 07:04:34 51°15.915 2°53.448 22.6636 0.069428 0.365417 -1.000568
2010-07-06 07:04:39 51°15.932 2°53.435 22.606 0.069428 0.365417 -1.000568
2010-07-06 07:04:43 51°15.946 2°53.425 22.6658 0.069532 0.365931 -1.000568
2010-07-06 07:04:49 51°15.966 2°53.411 22.6466 0.069532 0.365976 -1.000568
2010-07-06 07:04:54 51°15.983 2°53.4 22.664 0.069532 0.365942 -1.000568
2010-07-06 07:04:59 51°16.001 2°53.389 22.6327 0.069532 0.36606 -1.035392
2010-07-06 07:05:03 51°16.015 2°53.38 22.6727 0.069532 0.36606 -1.035392
2010-07-06 07:05:09 51°16.036 2°53.367 22.6565 0.069428 0.365512 -1.000568
2010-07-06 07:05:14 51°16.054 2°53.357 22.6671 0.069532 0.366183 -1.000568
2010-07-06 07:05:19 51°16.071 2°53.348 22.6817 0.069428 0.365646 -1.000568
2010-07-06 07:05:24 51°16.089 2°53.338 22.657 0.069428 0.36564 -1.000568
2010-07-06 07:05:29 51°16.107 2°53.328 22.6577 0.069532 0.366138 -1.000568
2010-07-06 07:05:34 51°16.125 2°53.318 22.6803 0.069532 0.366138 -1.000568
2010-07-06 07:05:39 51°16.142 2°53.308 22.6701 0.069428 0.365556 -1.035392
2010-07-06 07:05:44 51°16.16 2°53.298 22.6676 0.069428 0.365635 -0.965744
2010-07-06 07:05:49 51°16.178 2°53.288 22.4665 0.069428 0.365551 -1.000568
2010-07-06 07:05:54 51°16.196 2°53.277 22.472 0.069428 0.365624 -1.000568
2010-07-06 07:05:59 51°16.213 2°53.267 22.5093 0.069532 0.364955 -0.965744
2010-07-06 07:06:04 51°16.231 2°53.257 22.5407 0.036035 0.184844 -1.000568
2010-07-06 07:06:09 51°16.248 2°53.246 22.5503 0.036035 0.184844 -1.000568
2010-07-06 07:06:14 51°16.266 2°53.236 22.5461 0.035411 0.180792 -1.035392
2010-07-06 07:06:19 51°16.284 2°53.225 22.5432 0.008998 0.049022 -1.070216
2010-07-06 07:06:24 51°16.301 2°53.215 22.5441 0.005047 0.030646 -1.000568
2010-07-06 07:06:29 51°16.319 2°53.205 22.5469 0.005879 0.034449 -1.000568
2010-07-06 07:06:34 51°16.337 2°53.194 22.5529 0.005879 0.034449 -1.000568
2010-07-06 07:06:39 51°16.354 2°53.184 22.5561 0.010558 0.056475 -1.000568
2010-07-06 07:06:43 51°16.368 2°53.175 22.5599 0.009102 0.049539 -1.000568
2010-07-06 07:06:49 51°16.389 2°53.163 22.563 0.007438 0.041723 -1.000568
2010-07-06 07:06:54 51°16.406 2°53.152 22.5639 0.010766 0.057567 -1.035392
2010-07-06 07:06:59 51°16.424 2°53.142 22.5666 0.005359 0.0321 -1.000568
2010-07-06 07:07:04 51°16.442 2°53.131 22.5704 0.005359 0.0321 -1.000568
2010-07-06 07:07:09 51°16.459 2°53.121 22.5727 0.005359 0.032102 -1.000568
2010-07-06 07:07:14 51°16.476 2°53.11 22.572 0.010454 0.056093 -1.000568
2010-07-06 07:07:19 51°16.494 2°53.099 22.5757 0.012949 0.068183 -1.000568
2010-07-06 07:07:24 51°16.511 2°53.088 22.5758 0.009102 0.049632 -0.965744
2010-07-06 07:07:29 51°16.529 2°53.077 22.5792 0.005463 0.032584 -1.000568
2010-07-06 07:07:34 51°16.546 2°53.067 22.581 0.010662 0.057108 -1.000568
2010-07-06 07:07:39 51°16.563 2°53.055 22.584 0.010662 0.057108 -1.000568
2010-07-06 07:07:43 51°16.577 2°53.047 22.5874 0.014509 0.075837 -1.035392
2010-07-06 07:07:49 51°16.598 2°53.034 22.5923 0.015029 0.078403 -1.000568
2010-07-06 07:07:54 51°16.615 2°53.023 22.595 0.021372 0.109995 -1.000568
2010-07-06 07:07:59 51°16.632 2°53.012 22.6052 0.035307 0.181277 -1.000568
2010-07-06 07:08:04 51°16.65 2°53.001 22.6086 0.035619 0.182917 -1.000568
2010-07-06 07:08:09 51°16.667 2°52.99 22.6102 0.035619 0.182917 -1.000568
2010-07-06 07:08:14 51°16.684 2°52.979 22.609 0.035619 0.18293 -1.000568
2010-07-06 07:08:19 51°16.702 2°52.969 22.6118 0.035619 0.182978 -1.000568
2010-07-06 07:08:24 51°16.719 2°52.958 22.6125 0.035619 0.183004 -1.035392
2010-07-06 07:08:29 51°16.737 2°52.947 22.6147 0.035619 0.183009 -0.965744
2010-07-06 07:08:34 51°16.754 2°52.936 22.6167 0.035619 0.183009 -0.965744
2010-07-06 07:08:39 51°16.771 2°52.925 22.5869 0.035619 0.183009 -1.000568
2010-07-06 07:08:43 51°16.785 2°52.916 22.5928 0.035619 0.183015 -1.000568
2010-07-06 07:08:49 51°16.805 2°52.903 22.6006 0.035619 0.183041 -1.000568
2010-07-06 07:08:54 51°16.822 2°52.891 22.6043 0.035515 0.182437 -1.000568
2010-07-06 07:08:59 51°16.84 2°52.88 22.606 0.026571 0.136436 -1.000568
2010-07-06 07:09:04 51°16.857 2°52.869 22.6097 0.026571 0.136436 -1.000568
2010-07-06 07:09:09 51°16.874 2°52.858 22.6102 0.026883 0.138018 -0.965744
2010-07-06 07:09:14 51°16.891 2°52.847 22.6118 0.029691 0.152368 -1.000568
2010-07-06 07:09:19 51°16.908 2°52.836 22.613 0.030835 0.158247 -1.000568
2010-07-06 07:09:23 51°16.922 2°52.827 22.6154 0.027195 0.139631 -1.035392
2010-07-06 07:09:29 51°16.943 2°52.813 22.6155 0.027091 0.139112 -0.965744
2010-07-06 07:09:34 51°16.96 2°52.802 22.6177 0.035203 0.180812 -1.000568
2010-07-06 07:09:39 51°16.978 2°52.791 22.6199 0.035203 0.180812 -1.000568
2010-07-06 07:09:44 51°16.995 2°52.779 22.6189 0.034683 0.178142 -1.035392
2010-07-06 07:09:49 51°17.013 2°52.768 22.6228 0.035515 0.182463 -1.000568
2010-07-06 07:09:54 51°17.031 2°52.757 22.6246 0.035515 0.182471 -1.035392
2010-07-06 07:09:59 51°17.048 2°52.745 22.6276 0.035411 0.181941 -1.000568
2010-07-06 07:10:04 51°17.065 2°52.734 22.6291 0.035411 0.181941 -1.000568
2010-07-06 07:10:09 51°17.083 2°52.722 22.6303 0.035619 0.183041 -1.000568
2010-07-06 07:10:14 51°17.1 2°52.711 22.6322 0.035619 0.183062 -1.000568
2010-07-06 07:10:19 51°17.118 2°52.7 22.6255 0.035619 0.183075 -1.000568
2010-07-06 07:10:24 51°17.136 2°52.691 22.632 0.035619 0.183125 -1.000568
2010-07-06 07:10:29 51°17.154 2°52.683 22.6354 0.022308 0.114939 -0.965744
2010-07-06 07:10:34 51°17.173 2°52.676 22.645 0.022308 0.114939 -0.965744
2010-07-06 07:10:39 51°17.191 2°52.67 22.6381 0.035619 0.183081 -1.000568
2010-07-06 07:10:44 51°17.21 2°52.664 22.6436 0.035619 0.183102 -1.000568
2010-07-06 07:10:49 51°17.229 2°52.659 22.6496 0.035619 0.18311 -0.965744
2010-07-06 07:10:54 51°17.248 2°52.654 22.6533 0.030419 0.156261 -1.000568
2010-07-06 07:10:59 51°17.267 2°52.65 22.6573 0.014197 0.07446 -1.000568
2010-07-06 07:11:04 51°17.286 2°52.647 22.6576 0.010454 0.056209 -1.000568
2010-07-06 07:11:09 51°17.305 2°52.643 22.6579 0.010454 0.056209 -1.000568
2010-07-06 07:11:14 51°17.324 2°52.639 22.6593 0.011181 0.059722 -1.000568
2010-07-06 07:11:19 51°17.343 2°52.636 22.6602 0.011909 0.063254 -0.965744
2010-07-06 07:11:24 51°17.362 2°52.633 22.6616 0.011909 0.063256 -1.000568
2010-07-06 07:11:29 51°17.382 2°52.629 22.6635 0.010142 0.054704 -1.000568
2010-07-06 07:11:34 51°17.401 2°52.626 22.6643 0.013261 0.069854 -1.000568
2010-07-06 07:11:39 51°17.42 2°52.622 22.6656 0.013261 0.069854 -1.000568
2010-07-06 07:11:43 51°17.435 2°52.62 22.6665 0.010662 0.057214 -1.000568
2010-07-06 07:11:49 51°17.458 2°52.616 22.6681 0.00931 0.050718 -1.035392
2010-07-06 07:11:54 51°17.477 2°52.612 22.6697 0.006087 0.035503 -1.000568
2010-07-06 07:11:59 51°17.496 2°52.608 22.6711 0.011493 0.061252 -1.035392
2010-07-06 07:12:04 51°17.516 2°52.605 22.6721 0.008686 0.047746 -1.035392
2010-07-06 07:12:09 51°17.535 2°52.601 22.6739 0.008686 0.047746 -1.035392
2010-07-06 07:12:14 51°17.554 2°52.598 22.676 0.007854 0.043796 -1.000568
2010-07-06 07:12:19 51°17.573 2°52.594 22.6776 0.007646 0.042813 -1.000568
2010-07-06 07:12:24 51°17.592 2°52.59 22.6787 0.006295 0.036473 -1.000568
2010-07-06 07:12:29 51°17.611 2°52.587 22.6813 0.011077 0.05924 -1.000568
2010-07-06 07:12:34 51°17.63 2°52.583 22.6821 0.011077 0.05924 -1.000568
2010-07-06 07:12:39 51°17.649 2°52.579 22.6832 0.010038 0.054221 -1.000568
2010-07-06 07:12:43 51°17.664 2°52.576 22.6854 0.009934 0.053721 -1.000568
2010-07-06 07:12:49 51°17.687 2°52.571 22.687 0.011389 0.06075 -1.000568
2010-07-06 07:12:54 51°17.707 2°52.568 22.6895 0.011389 0.06075 -1.000568
2010-07-06 07:12:59 51°17.726 2°52.563 22.6906 0.006815 0.0389 -1.035392
2010-07-06 07:13:04 51°17.745 2°52.56 22.691 0.005567 0.033101 -1.000568
2010-07-06 07:13:09 51°17.764 2°52.556 22.6946 0.005567 0.033101 -1.000568
2010-07-06 07:13:14 51°17.783 2°52.552 22.6971 0.007023 0.039877 -1.035392
2010-07-06 07:13:19 51°17.802 2°52.548 22.6956 0.008374 0.046265 -1.035392
2010-07-06 07:13:23 51°17.817 2°52.545 22.6927 0.009414 0.05123 -1.000568
2010-07-06 07:13:29 51°17.84 2°52.54 22.6956 0.00328 0.022774 -1.000568
2010-07-06 07:13:34 51°17.859 2°52.539 22.6994 0.00328 0.022774 -1.000568
2010-07-06 07:13:39 51°17.879 2°52.537 22.6994 0.006399 0.036959 -1.035392
2010-07-06 07:13:44 51°17.898 2°52.536 22.7027 0.002968 0.021411 -1.035392
2010-07-06 07:13:49 51°17.917 2°52.537 22.7016 0.003799 0.025076 -1.000568
2010-07-06 07:13:54 51°17.937 2°52.536 22.705 0.00172 0.016144 -1.000568
2010-07-06 07:13:59 51°17.956 2°52.538 22.705 0.001928 0.016996 -1.035392
2010-07-06 07:14:03 51°17.971 2°52.537 22.7085 0.001928 0.016996 -1.035392
2010-07-06 07:14:09 51°17.994 2°52.539 22.7085 0.00172 0.016146 -1.000568
2010-07-06 07:14:14 51°18.013 2°52.54 22.7112 0.001408 0.014899 -1.035392
2010-07-06 07:14:19 51°18.033 2°52.541 22.7143 0.001304 0.014494 -0.965744
2010-07-06 07:14:23 51°18.048 2°52.542 22.7164 0.0012 0.014094 -1.000568
2010-07-06 07:14:27 51°18.064 2°52.543 22.7181 0.0012 0.014095 -1.000568
2010-07-06 07:14:33 51°18.087 2°52.545 22.7206 0.0012 0.014095 -1.000568
2010-07-06 07:14:39 51°18.11 2°52.546 22.7225 0.0012 0.014094 -1.000568
2010-07-06 07:14:43 51°18.126 2°52.547 22.7236 0.001304 0.014493 -0.965744
2010-07-06 07:14:48 51°18.145 2°52.548 22.7255 0.001304 0.014493 -1.000568
2010-07-06 07:14:54 51°18.168 2°52.55 22.7263 0.001304 0.014492 -1.000568
2010-07-06 07:14:59 51°18.188 2°52.551 22.7275 0.001512 0.015309 -1.000568
2010-07-06 07:15:03 51°18.203 2°52.552 22.731 0.0012 0.01409 -1.000568
2010-07-06 07:15:08 51°18.222 2°52.553 22.7317 0.0012 0.01409 -1.000568
2010-07-06 07:15:13 51°18.242 2°52.554 22.7346 0.0012 0.01409 -1.000568
2010-07-06 07:15:19 51°18.265 2°52.556 22.7359 0.001304 0.014491 -1.000568
2010-07-06 07:15:24 51°18.284 2°52.556 22.7373 0.0012 0.014089 -1.000568
2010-07-06 07:15:29 51°18.303 2°52.557 22.7407 0.001304 0.01449 -1.035392
2010-07-06 07:15:34 51°18.323 2°52.559 22.7408 0.001304 0.01449 -1.035392
2010-07-06 07:15:39 51°18.342 2°52.56 22.742 0.001304 0.01449 -1.035392
2010-07-06 07:15:44 51°18.361 2°52.561 22.7445 0.001408 0.014896 -1.000568
2010-07-06 07:15:49 51°18.38 2°52.562 22.7449 0.001304 0.014489 -1.035392
2010-07-06 07:15:54 51°18.4 2°52.563 22.7472 0.001512 0.015307 -1.035392
2010-07-06 07:15:59 51°18.419 2°52.564 22.7475 0.001408 0.014895 -1.000568
2010-07-06 07:16:04 51°18.438 2°52.566 22.753 0.001408 0.014895 -1.000568
2010-07-06 07:16:09 51°18.457 2°52.566 22.7535 0.001512 0.015307 -1.035392
2010-07-06 07:16:14 51°18.477 2°52.567 22.7541 0.001304 0.014488 -1.000568
2010-07-06 07:16:19 51°18.496 2°52.568 22.7578 0.0012 0.014087 -1.000568
2010-07-06 07:16:24 51°18.515 2°52.569 22.7545 0.001304 0.014488 -1.035392
2010-07-06 07:16:29 51°18.534 2°52.571 22.7615 0.001616 0.015722 -1.000568
2010-07-06 07:16:34 51°18.554 2°52.571 22.757 0.001096 0.013691 -0.965744
2010-07-06 07:16:39 51°18.573 2°52.572 22.7646 0.001096 0.013691 -0.965744
2010-07-06 07:16:44 51°18.592 2°52.573 22.7628 0.001304 0.014488 -1.000568
2010-07-06 07:16:49 51°18.612 2°52.574 22.7674 0.0012 0.014087 -0.965744
2010-07-06 07:16:54 51°18.631 2°52.574 22.7676 0.0012 0.014086 -0.965744
2010-07-06 07:16:59 51°18.65 2°52.575 22.7696 0.001408 0.014894 -1.000568
2010-07-06 07:17:04 51°18.67 2°52.576 22.7716 0.001304 0.014487 -1.035392
2010-07-06 07:17:09 51°18.689 2°52.577 22.7712 0.001304 0.014487 -1.035392
2010-07-06 07:17:14 51°18.708 2°52.578 22.7768 0.0012 0.014086 -1.000568
2010-07-06 07:17:19 51°18.727 2°52.579 22.7774 0.0012 0.014086 -1.000568
2010-07-06 07:17:24 51°18.747 2°52.58 22.7799 0.001304 0.014487 -0.965744
2010-07-06 07:17:29 51°18.766 2°52.581 22.7808 0.0012 0.014085 -0.965744
2010-07-06 07:17:34 51°18.785 2°52.582 22.782 0.001408 0.014893 -1.000568
2010-07-06 07:17:39 51°18.805 2°52.582 22.7818 0.001408 0.014893 -1.000568
2010-07-06 07:17:44 51°18.824 2°52.583 22.7862 0.0012 0.014085 -1.000568
2010-07-06 07:17:49 51°18.843 2°52.584 22.7867 0.001408 0.014893 -1.035392
2010-07-06 07:17:54 51°18.863 2°52.584 22.789 0.0012 0.014084 -1.000568
2010-07-06 07:17:59 51°18.882 2°52.585 22.789 0.0012 0.014084 -1.035392
2010-07-06 07:18:04 51°18.902 2°52.586 22.7913 0.0012 0.014084 -1.035392
2010-07-06 07:18:09 51°18.921 2°52.587 22.796 0.001304 0.014485 -1.000568
2010-07-06 07:18:14 51°18.941 2°52.587 22.7939 0.001304 0.014485 -1.000568
2010-07-06 07:18:19 51°18.96 2°52.588 22.7981 0.0012 0.014083 -1.000568
2010-07-06 07:18:24 51°18.979 2°52.589 22.7981 0.001096 0.013688 -1.000568
2010-07-06 07:18:29 51°18.998 2°52.589 22.7994 0.0012 0.014083 -0.965744
2010-07-06 07:18:34 51°19.018 2°52.59 22.8028 0.001304 0.014484 -1.000568
2010-07-06 07:18:39 51°19.037 2°52.591 22.8044 0.001304 0.014484 -1.000568
2010-07-06 07:18:44 51°19.056 2°52.591 22.8072 0.001096 0.013688 -1.000568
2010-07-06 07:18:49 51°19.076 2°52.592 22.809 0.0012 0.014083 -1.000568
2010-07-06 07:18:54 51°19.095 2°52.593 22.8095 0.001408 0.014891 -1.035392
2010-07-06 07:18:59 51°19.115 2°52.593 22.8104 0.001096 0.013686 -0.965744
2010-07-06 07:19:04 51°19.134 2°52.594 22.8129 0.0012 0.014082 -1.035392
2010-07-06 07:19:09 51°19.154 2°52.595 22.8094 0.0012 0.014082 -1.035392
2010-07-06 07:19:14 51°19.173 2°52.596 22.81 0.001304 0.014483 -1.000568
2010-07-06 07:19:19 51°19.193 2°52.597 22.8083 0.001304 0.014483 -1.000568
2010-07-06 07:19:24 51°19.212 2°52.599 22.8178 0.001304 0.014483 -0.965744
2010-07-06 07:19:29 51°19.232 2°52.601 22.8147 0.000992 0.013298 -1.035392
2010-07-06 07:19:34 51°19.251 2°52.605 22.8241 0.000992 0.013298 -1.035392
2010-07-06 07:19:39 51°19.271 2°52.607 22.8186 0.001304 0.014483 -1.035392
2010-07-06 07:19:44 51°19.29 2°52.611 22.826 0.0012 0.014082 -1.000568
2010-07-06 07:19:49 51°19.31 2°52.614 22.8276 0.000992 0.013298 -1.000568
2010-07-06 07:19:54 51°19.33 2°52.618 22.8309 0.001096 0.013686 -1.000568
2010-07-06 07:19:59 51°19.349 2°52.622 22.8292 0.001096 0.013686 -1.000568
2010-07-06 07:20:04 51°19.369 2°52.626 22.8335 0.001096 0.013686 -1.000568
2010-07-06 07:20:09 51°19.389 2°52.63 22.8331 0.000992 0.013297 -0.965744
2010-07-06 07:20:14 51°19.408 2°52.634 22.8349 0.001096 0.013686 -1.000568
2010-07-06 07:20:19 51°19.428 2°52.638 22.8372 0.001096 0.013686 -1.000568
2010-07-06 07:20:24 51°19.447 2°52.641 22.8365 0.0012 0.01408 -1.035392
2010-07-06 07:20:28 51°19.463 2°52.644 22.8373 0.001096 0.013685 -0.965744
2010-07-06 07:20:34 51°19.487 2°52.649 22.84 0.001096 0.013685 -1.000568
2010-07-06 07:20:39 51°19.506 2°52.654 22.8466 0.001096 0.013685 -1.000568
2010-07-06 07:20:44 51°19.526 2°52.658 22.8459 0.001096 0.013684 -1.000568
2010-07-06 07:20:49 51°19.546 2°52.662 22.8486 0.0012 0.014079 -1.000568
2010-07-06 07:20:54 51°19.565 2°52.666 22.8492 0.000992 0.013295 -0.965744
2010-07-06 07:20:59 51°19.585 2°52.67 22.8516 0.001096 0.013683 -1.000568
2010-07-06 07:21:04 51°19.605 2°52.674 22.8546 0.000992 0.013295 -1.035392
2010-07-06 07:21:08 51°19.62 2°52.678 22.8547 0.000992 0.013295 -1.035392
2010-07-06 07:21:14 51°19.644 2°52.682 22.8587 0.000992 0.013295 -1.000568
2010-07-06 07:21:19 51°19.664 2°52.686 22.8551 0.001096 0.013683 -1.000568
2010-07-06 07:21:24 51°19.683 2°52.69 22.8572 0.000992 0.013295 -1.000568
2010-07-06 07:21:29 51°19.703 2°52.694 22.8568 0.001096 0.013683 -1.000568
2010-07-06 07:21:34 51°19.723 2°52.697 22.8647 0.001096 0.013683 -1.000568
2010-07-06 07:21:39 51°19.743 2°52.702 22.8658 0.001096 0.013683 -1.000568
2010-07-06 07:21:44 51°19.763 2°52.706 22.8709 0.000888 0.012915 -1.035392
2010-07-06 07:21:49 51°19.782 2°52.71 22.8697 0.000992 0.013294 -1.035392
2010-07-06 07:21:54 51°19.802 2°52.713 22.8707 0.001096 0.013682 -1.000568
2010-07-06 07:21:59 51°19.822 2°52.717 22.8738 0.000992 0.013294 -1.035392
2010-07-06 07:22:04 51°19.842 2°52.721 22.8755 0.000992 0.013293 -1.000568
2010-07-06 07:22:09 51°19.861 2°52.725 22.8746 0.000992 0.013293 -1.000568
2010-07-06 07:22:14 51°19.881 2°52.729 22.872 0.000992 0.013293 -1.035392
2010-07-06 07:22:19 51°19.901 2°52.732 22.8819 0.000992 0.013293 -1.000568
2010-07-06 07:22:24 51°19.921 2°52.736 22.8818 0.000992 0.013293 -1.035392
2010-07-06 07:22:29 51°19.941 2°52.74 22.8834 0.000992 0.013293 -0.965744
2010-07-06 07:22:34 51°19.96 2°52.744 22.8852 0.001096 0.013681 -1.000568
2010-07-06 07:22:39 51°19.98 2°52.747 22.8838 0.001096 0.013681 -1.000568
2010-07-06 07:22:44 51°20 2°52.751 22.8875 0.001096 0.013681 -1.000568
2010-07-06 07:22:49 51°20.02 2°52.755 22.8897 0.000992 0.013292 -0.965744
2010-07-06 07:22:54 51°20.039 2°52.758 22.8936 0.001096 0.01368 -1.035392
2010-07-06 07:22:59 51°20.059 2°52.762 22.8907 0.0012 0.014076 -1.000568
2010-07-06 07:23:04 51°20.079 2°52.766 22.8973 0.0012 0.014076 -1.000568
2010-07-06 07:23:09 51°20.098 2°52.77 22.8959 0.001096 0.01368 -1.000568
2010-07-06 07:23:14 51°20.118 2°52.773 22.8956 0.000888 0.012911 -1.000568
2010-07-06 07:23:19 51°20.137 2°52.777 22.8985 0.000888 0.012912 -1.000568
2010-07-06 07:23:24 51°20.157 2°52.78 22.9051 0.000888 0.012912 -1.000568
2010-07-06 07:23:29 51°20.176 2°52.784 22.9049 0.000992 0.013292 -0.965744
2010-07-06 07:23:34 51°20.196 2°52.789 22.9022 0.000992 0.013292 -0.965744
2010-07-06 07:23:39 51°20.215 2°52.793 22.9076 0.000888 0.012912 -1.000568
2010-07-06 07:23:44 51°20.234 2°52.798 22.9029 0.0012 0.014076 -1.000568
2010-07-06 07:23:49 51°20.254 2°52.804 22.9141 0.000888 0.012911 -1.000568
2010-07-06 07:23:54 51°20.273 2°52.809 22.9074 0.000888 0.012911 -1.000568
2010-07-06 07:23:59 51°20.292 2°52.815 22.9153 0.000888 0.012911 -0.965744
2010-07-06 07:24:04 51°20.311 2°52.821 22.9145 0.000888 0.012911 -0.965744
2010-07-06 07:24:08 51°20.327 2°52.826 22.9217 0.000888 0.012911 -1.000568
2010-07-06 07:24:14 51°20.35 2°52.834 22.9135 0.000992 0.01329 -1.000568
2010-07-06 07:24:19 51°20.369 2°52.841 22.9243 0.000888 0.01291 -1.000568
2010-07-06 07:24:24 51°20.388 2°52.848 22.9235 0.000888 0.012909 -0.965744
2010-07-06 07:24:29 51°20.408 2°52.854 22.9262 0.000888 0.012909 -1.000568
2010-07-06 07:24:34 51°20.427 2°52.86 22.9232 0.000888 0.012909 -0.965744
2010-07-06 07:24:39 51°20.446 2°52.867 22.9294 0.000888 0.012909 -0.965744
2010-07-06 07:24:44 51°20.466 2°52.874 22.9243 0.000992 0.013288 -1.000568
2010-07-06 07:24:49 51°20.485 2°52.88 22.9362 0.000888 0.012908 -0.965744
2010-07-06 07:24:54 51°20.504 2°52.886 22.9308 0.000888 0.012908 -1.035392
2010-07-06 07:24:59 51°20.523 2°52.892 22.937 0.000888 0.012908 -1.000568
2010-07-06 07:25:04 51°20.543 2°52.898 22.9342 0.000888 0.012908 -1.000568
2010-07-06 07:25:09 51°20.562 2°52.905 22.9412 0.000888 0.012908 -1.000568
2010-07-06 07:25:14 51°20.581 2°52.911 22.9416 0.000992 0.013287 -1.000568
2010-07-06 07:25:19 51°20.6 2°52.917 22.9416 0.000888 0.012906 -1.035392
2010-07-06 07:25:24 51°20.62 2°52.923 22.9443 0.000888 0.012906 -1.000568
2010-07-06 07:25:28 51°20.635 2°52.928 22.943 0.000992 0.013286 -0.965744
2010-07-06 07:25:34 51°20.658 2°52.935 22.9492 0.000888 0.012906 -1.035392
2010-07-06 07:25:39 51°20.677 2°52.941 22.9521 0.000888 0.012906 -1.035392
2010-07-06 07:25:44 51°20.696 2°52.947 22.9497 0.000888 0.012906 -1.000568
2010-07-06 07:25:49 51°20.716 2°52.953 22.9491 0.000888 0.012906 -1.035392
2010-07-06 07:25:54 51°20.735 2°52.959 22.9537 0.000888 0.012906 -1.000568
2010-07-06 07:25:59 51°20.754 2°52.965 22.9562 0.000992 0.013286 -1.000568
2010-07-06 07:26:04 51°20.773 2°52.971 22.9608 0.000888 0.012905 -1.000568
2010-07-06 07:26:09 51°20.792 2°52.977 22.9583 0.000888 0.012905 -1.000568
2010-07-06 07:26:14 51°20.811 2°52.983 22.9602 0.000992 0.013285 -1.000568
2010-07-06 07:26:19 51°20.831 2°52.989 22.9618 0.000888 0.012905 -1.000568
2010-07-06 07:26:24 51°20.85 2°52.995 22.9616 0.000888 0.012904 -1.000568
2010-07-06 07:26:29 51°20.869 2°53.001 22.967 0.000888 0.012904 -1.000568
2010-07-06 07:26:34 51°20.888 2°53.007 22.9661 0.000888 0.012904 -1.000568
2010-07-06 07:26:39 51°20.908 2°53.013 22.9704 0.000888 0.012904 -0.965744
2010-07-06 07:26:44 51°20.927 2°53.019 22.9716 0.000784 0.012534 -1.000568
2010-07-06 07:26:49 51°20.946 2°53.025 22.9733 0.000888 0.012904 -1.000568
2010-07-06 07:26:54 51°20.965 2°53.031 22.9793 0.000888 0.012904 -1.000568
2010-07-06 07:26:59 51°20.985 2°53.036 22.971 0.000888 0.012903 -1.000568
2010-07-06 07:27:04 51°21.004 2°53.042 22.9822 0.000888 0.012903 -1.000568
2010-07-06 07:27:09 51°21.023 2°53.048 22.9753 0.000888 0.012903 -1.000568
2010-07-06 07:27:14 51°21.042 2°53.054 22.9849 0.000888 0.012903 -1.000568
2010-07-06 07:27:19 51°21.061 2°53.059 22.982 0.000888 0.012902 -1.035392
2010-07-06 07:27:24 51°21.08 2°53.066 22.9886 0.000888 0.012903 -1.000568
2010-07-06 07:27:29 51°21.1 2°53.071 22.9881 0.000784 0.012532 -1.000568
2010-07-06 07:27:34 51°21.119 2°53.077 22.9898 0.000888 0.012903 -1.000568
2010-07-06 07:27:39 51°21.138 2°53.082 22.9922 0.000888 0.012903 -1.000568
2010-07-06 07:27:44 51°21.157 2°53.089 22.9995 0.000888 0.012902 -1.000568
2010-07-06 07:27:49 51°21.177 2°53.094 22.9892 0.000888 0.012902 -1.000568
2010-07-06 07:27:54 51°21.196 2°53.1 23 0.000888 0.012902 -1.000568
2010-07-06 07:27:59 51°21.215 2°53.106 22.9976 0.000784 0.012531 -1.035392
2010-07-06 07:28:04 51°21.234 2°53.111 23.0047 0.000784 0.012531 -1.035392
2010-07-06 07:28:08 51°21.249 2°53.116 23.0042 0.000888 0.012901 -1.000568
2010-07-06 07:28:14 51°21.272 2°53.122 23.0096 0.000784 0.01253 -1.000568
2010-07-06 07:28:19 51°21.291 2°53.127 23.0058 0.000888 0.0129 -0.965744
2010-07-06 07:28:24 51°21.311 2°53.133 23.0069 0.000888 0.0129 -1.000568
2010-07-06 07:28:29 51°21.33 2°53.139 23.0121 0.000784 0.012529 -1.000568
2010-07-06 07:28:34 51°21.349 2°53.145 23.012 0.000784 0.012529 -1.000568
2010-07-06 07:28:39 51°21.369 2°53.151 23.0147 0.000888 0.0129 -1.000568
2010-07-06 07:28:44 51°21.388 2°53.157 23.0213 0.000888 0.0129 -0.965744
2010-07-06 07:28:48 51°21.403 2°53.161 23.0211 0.000888 0.012899 -1.000568
2010-07-06 07:28:54 51°21.426 2°53.168 23.019 0.000784 0.012528 -1.000568
2010-07-06 07:28:59 51°21.446 2°53.174 23.022 0.000888 0.012899 -1.000568
2010-07-06 07:29:04 51°21.465 2°53.18 23.0276 0.000888 0.012899 -1.000568
2010-07-06 07:29:08 51°21.48 2°53.184 23.0283 0.000888 0.012899 -0.965744
2010-07-06 07:29:14 51°21.503 2°53.191 23.0257 0.000888 0.012899 -0.965744
2010-07-06 07:29:18 51°21.519 2°53.195 23.0329 0.000888 0.012898 -0.965744
2010-07-06 07:29:24 51°21.542 2°53.202 23.0325 0.000784 0.012527 -1.000568
2010-07-06 07:29:28 51°21.557 2°53.207 23.0366 0.000888 0.012897 -1.000568
2010-07-06 07:29:33 51°21.576 2°53.213 23.0301 0.000888 0.012897 -1.000568
2010-07-06 07:29:39 51°21.599 2°53.219 23.039 0.000888 0.012897 -1.000568
2010-07-06 07:29:44 51°21.619 2°53.225 23.0327 0.000888 0.012897 -1.000568
2010-07-06 07:29:49 51°21.638 2°53.231 23.0392 0.000888 0.012896 -1.000568
2010-07-06 07:29:54 51°21.657 2°53.238 23.0428 0.000784 0.012526 -1.000568
2010-07-06 07:29:59 51°21.676 2°53.245 23.039 0.000784 0.012526 -0.965744
2010-07-06 07:30:04 51°21.695 2°53.252 23.0491 0.000784 0.012527 -0.965744
2010-07-06 07:30:09 51°21.714 2°53.261 23.0487 0.000784 0.012527 -0.965744
2010-07-06 07:30:14 51°21.733 2°53.268 23.0532 0.000681 0.012167 -1.000568
2010-07-06 07:30:19 51°21.752 2°53.278 23.0549 0.000888 0.012897 -1.000568
2010-07-06 07:30:24 51°21.771 2°53.285 23.0563 0.000681 0.012166 -1.000568
2010-07-06 07:30:29 51°21.789 2°53.295 23.0614 0.000888 0.012897 -1.000568
2010-07-06 07:30:34 51°21.809 2°53.302 23.0516 0.000888 0.012897 -1.000568
2010-07-06 07:30:39 51°21.827 2°53.311 23.0641 0.000784 0.012525 -1.035392
2010-07-06 07:30:44 51°21.846 2°53.32 23.0578 0.000888 0.012896 -1.000568
2010-07-06 07:30:49 51°21.865 2°53.328 23.0683 0.000681 0.012166 -1.000568
2010-07-06 07:30:53 51°21.88 2°53.335 23.0599 0.000888 0.012896 -1.035392
2010-07-06 07:30:59 51°21.903 2°53.345 23.0672 0.000784 0.012524 -1.000568
2010-07-06 07:31:04 51°21.922 2°53.354 23.0713 0.000888 0.012895 -1.000568
2010-07-06 07:31:09 51°21.941 2°53.362 23.0666 0.000888 0.012895 -1.000568
2010-07-06 07:31:14 51°21.959 2°53.371 23.08 0.000784 0.012523 -1.000568
2010-07-06 07:31:19 51°21.978 2°53.38 23.0735 0.000784 0.012523 -1.000568
2010-07-06 07:31:24 51°21.997 2°53.388 23.0756 0.000888 0.012894 -1.035392
2010-07-06 07:31:29 51°22.016 2°53.397 23.0776 0.000784 0.012524 -0.965744
2010-07-06 07:31:34 51°22.035 2°53.405 23.0799 0.000784 0.012524 -0.965744
2010-07-06 07:31:39 51°22.054 2°53.414 23.0843 0.000681 0.012164 -1.000568
2010-07-06 07:31:44 51°22.073 2°53.423 23.0867 0.000784 0.012524 -1.000568
2010-07-06 07:31:49 51°22.091 2°53.432 23.0898 0.000784 0.012524 -1.000568
2010-07-06 07:31:54 51°22.11 2°53.44 23.0835 0.000784 0.012523 -0.965744
2010-07-06 07:31:59 51°22.129 2°53.448 23.0979 0.000784 0.012523 -1.000568
2010-07-06 07:32:04 51°22.148 2°53.457 23.0894 0.000681 0.012162 -1.000568
2010-07-06 07:32:09 51°22.167 2°53.466 23.0979 0.000681 0.012162 -1.000568
2010-07-06 07:32:13 51°22.182 2°53.472 23.0899 0.000784 0.012522 -1.000568
2010-07-06 07:32:18 51°22.201 2°53.48 23.0981 0.000784 0.012522 -1.035392
2010-07-06 07:32:23 51°22.22 2°53.488 23.0943 0.000784 0.012522 -1.000568
2010-07-06 07:32:29 51°22.242 2°53.499 23.1092 0.000681 0.012163 -1.000568
2010-07-06 07:32:34 51°22.261 2°53.507 23.1096 0.000681 0.012163 -1.000568
2010-07-06 07:32:39 51°22.28 2°53.515 23.1074 0.000784 0.012523 -1.035392
2010-07-06 07:32:44 51°22.299 2°53.521 23.1161 0.000681 0.012162 -1.035392
2010-07-06 07:32:49 51°22.318 2°53.528 23.1161 0.000784 0.012521 -1.000568
2010-07-06 07:32:54 51°22.338 2°53.532 23.1046 0.000681 0.012162 -1.000568
2010-07-06 07:32:59 51°22.357 2°53.537 23.117 0.000784 0.012521 -1.000568
2010-07-06 07:33:04 51°22.376 2°53.541 23.1109 0.000681 0.012162 -1.035392
2010-07-06 07:33:09 51°22.395 2°53.544 23.119 0.000681 0.012162 -1.035392
2010-07-06 07:33:14 51°22.415 2°53.549 23.1138 0.000681 0.012161 -1.000568
2010-07-06 07:33:19 51°22.434 2°53.552 23.1231 0.000681 0.012161 -1.035392
2010-07-06 07:33:24 51°22.453 2°53.555 23.1209 0.000681 0.012161 -1.035392
2010-07-06 07:33:29 51°22.473 2°53.557 23.1261 0.000681 0.012161 -1.000568
2010-07-06 07:33:34 51°22.492 2°53.56 23.1158 0.000681 0.012161 -1.000568
2010-07-06 07:33:39 51°22.511 2°53.562 23.1234 0.000681 0.012161 -1.000568
2010-07-06 07:33:44 51°22.531 2°53.565 23.1306 0.000681 0.01216 -1.000568
2010-07-06 07:33:49 51°22.55 2°53.568 23.1245 0.000681 0.012159 -1.000568
2010-07-06 07:33:54 51°22.57 2°53.572 23.1319 0.000888 0.012891 -1.035392
2010-07-06 07:33:59 51°22.589 2°53.576 23.1352 0.000681 0.01216 -1.000568
2010-07-06 07:34:04 51°22.608 2°53.579 23.1389 0.000681 0.01216 -1.000568
2010-07-06 07:34:08 51°22.624 2°53.581 23.141 0.000681 0.01216 -1.000568
2010-07-06 07:34:14 51°22.647 2°53.584 23.1464 0.000681 0.012161 -1.000568
2010-07-06 07:34:18 51°22.663 2°53.585 23.1378 0.000577 0.011815 -1.035392
2010-07-06 07:34:23 51°22.682 2°53.587 23.1509 0.000681 0.012159 -1.000568
2010-07-06 07:34:28 51°22.701 2°53.588 23.1505 0.000681 0.012159 -1.000568
2010-07-06 07:34:34 51°22.725 2°53.588 23.1527 0.000681 0.012157 -1.000568
2010-07-06 07:34:38 51°22.74 2°53.588 23.1503 0.000681 0.012157 -1.000568
2010-07-06 07:34:44 51°22.763 2°53.587 23.1462 0.000681 0.012156 -1.035392
2010-07-06 07:34:49 51°22.783 2°53.586 23.1506 0.000681 0.012157 -1.000568
2010-07-06 07:34:54 51°22.802 2°53.583 23.1414 0.000681 0.012157 -1.000568
2010-07-06 07:34:59 51°22.821 2°53.582 23.1517 0.000681 0.012157 -1.000568
2010-07-06 07:35:03 51°22.836 2°53.58 23.1441 0.000577 0.011811 -1.000568
2010-07-06 07:35:09 51°22.86 2°53.578 23.1608 0.000577 0.011811 -1.000568
2010-07-06 07:35:14 51°22.879 2°53.575 23.1511 0.000681 0.012157 -1.035392
2010-07-06 07:35:19 51°22.898 2°53.572 23.156 0.000577 0.011812 -1.000568
2010-07-06 07:35:24 51°22.917 2°53.57 23.1592 0.000577 0.011812 -1.035392
2010-07-06 07:35:29 51°22.936 2°53.568 23.1703 0.000681 0.012157 -1.000568
2010-07-06 07:35:34 51°22.956 2°53.566 23.1666 0.000681 0.012157 -1.000568
2010-07-06 07:35:39 51°22.975 2°53.563 23.173 0.000577 0.011811 -1.035392
2010-07-06 07:35:43 51°22.991 2°53.562 23.1696 0.000577 0.01181 -1.000568
2010-07-06 07:35:48 51°23.01 2°53.559 23.1691 0.000577 0.01181 -1.000568
2010-07-06 07:35:53 51°23.029 2°53.557 23.1756 0.000681 0.012155 -1.000568
2010-07-06 07:35:58 51°23.049 2°53.555 23.1735 0.000577 0.01181 -1.000568
2010-07-06 07:36:04 51°23.072 2°53.552 23.1804 0.000577 0.01181 -1.000568
2010-07-06 07:36:09 51°23.092 2°53.55 23.1789 0.000577 0.01181 -1.035392
2010-07-06 07:36:14 51°23.111 2°53.548 23.1839 0.000577 0.01181 -1.000568
2010-07-06 07:36:19 51°23.131 2°53.547 23.1859 0.000577 0.01181 -1.000568
2010-07-06 07:36:24 51°23.15 2°53.545 23.1866 0.000577 0.011809 -1.000568
2010-07-06 07:36:28 51°23.166 2°53.544 23.1875 0.000577 0.011809 -1.000568
2010-07-06 07:36:34 51°23.189 2°53.541 23.1857 0.000577 0.011809 -1.035392
2010-07-06 07:36:39 51°23.208 2°53.54 23.1991 0.000577 0.011809 -1.035392
2010-07-06 07:36:44 51°23.228 2°53.538 23.1949 0.000577 0.011808 -1.000568
2010-07-06 07:36:49 51°23.247 2°53.536 23.1897 0.000681 0.012153 -1.000568
2010-07-06 07:36:54 51°23.267 2°53.534 23.1938 0.000577 0.011807 -1.000568
2010-07-06 07:36:59 51°23.287 2°53.532 23.1965 0.000577 0.011807 -1.035392
2010-07-06 07:37:04 51°23.306 2°53.53 23.1986 0.000577 0.011808 -1.000568
2010-07-06 07:37:09 51°23.326 2°53.528 23.2027 0.000577 0.011808 -1.000568
2010-07-06 07:37:14 51°23.346 2°53.526 23.2052 0.000577 0.011808 -1.035392
2010-07-06 07:37:19 51°23.365 2°53.525 23.2057 0.000577 0.011808 -0.965744
2010-07-06 07:37:24 51°23.385 2°53.523 23.2096 0.000577 0.011807 -1.035392
2010-07-06 07:37:28 51°23.4 2°53.521 23.2177 0.000577 0.011807 -1.035392
2010-07-06 07:37:34 51°23.424 2°53.519 23.208 0.000577 0.011807 -1.035392
2010-07-06 07:37:39 51°23.443 2°53.517 23.2112 0.000577 0.011806 -1.000568
2010-07-06 07:37:44 51°23.463 2°53.516 23.2222 0.000577 0.011805 -1.000568
2010-07-06 07:37:49 51°23.482 2°53.514 23.2192 0.000577 0.011806 -1.000568
2010-07-06 07:37:54 51°23.502 2°53.513 23.2243 0.000577 0.011806 -1.000568
2010-07-06 07:37:59 51°23.522 2°53.511 23.2271 0.000577 0.011806 -1.000568
2010-07-06 07:38:04 51°23.542 2°53.509 23.228 0.000577 0.011806 -1.000568
2010-07-06 07:38:09 51°23.561 2°53.507 23.228 0.000577 0.011806 -1.035392
2010-07-06 07:38:14 51°23.581 2°53.506 23.2292 0.000577 0.011805 -0.965744
2010-07-06 07:38:19 51°23.6 2°53.504 23.2263 0.000577 0.011804 -1.000568
2010-07-06 07:38:24 51°23.62 2°53.502 23.2337 0.000577 0.011804 -1.000568
2010-07-06 07:38:29 51°23.64 2°53.501 23.2354 0.000473 0.011476 -1.000568
2010-07-06 07:38:34 51°23.66 2°53.5 23.2328 0.000577 0.011804 -1.000568
2010-07-06 07:38:39 51°23.68 2°53.498 23.2324 0.000577 0.011804 -1.000568
2010-07-06 07:38:44 51°23.7 2°53.497 23.24 0.000577 0.011804 -1.000568
2010-07-06 07:38:48 51°23.715 2°53.495 23.2484 0.000473 0.011476 -1.000568
2010-07-06 07:38:54 51°23.739 2°53.493 23.2363 0.000577 0.011803 -0.965744
2010-07-06 07:38:59 51°23.758 2°53.491 23.2505 0.000577 0.011803 -1.000568
2010-07-06 07:39:04 51°23.778 2°53.49 23.2441 0.000577 0.011803 -1.000568
2010-07-06 07:39:09 51°23.798 2°53.488 23.2542 0.000473 0.011476 -1.000568
2010-07-06 07:39:14 51°23.817 2°53.487 23.252 0.000577 0.011803 -1.000568
2010-07-06 07:39:19 51°23.837 2°53.485 23.2467 0.000577 0.011802 -0.965744
2010-07-06 07:39:24 51°23.856 2°53.484 23.2591 0.000473 0.011474 -1.000568
2010-07-06 07:39:29 51°23.877 2°53.483 23.2623 0.000577 0.011802 -1.000568
2010-07-06 07:39:34 51°23.897 2°53.481 23.2625 0.000577 0.011802 -1.000568
2010-07-06 07:39:39 51°23.917 2°53.479 23.265 0.000577 0.011801 -1.000568
2010-07-06 07:39:44 51°23.937 2°53.478 23.2587 0.000577 0.0118 -1.035392
2010-07-06 07:39:49 51°23.956 2°53.476 23.2602 0.000577 0.0118 -1.000568
2010-07-06 07:39:54 51°23.976 2°53.474 23.2647 0.000577 0.0118 -1.000568
2010-07-06 07:39:59 51°23.996 2°53.471 23.2594 0.000473 0.011473 -1.000568
2010-07-06 07:40:04 51°24.016 2°53.47 23.2733 0.000577 0.0118 -1.000568
2010-07-06 07:40:09 51°24.035 2°53.467 23.2738 0.000577 0.0118 -1.000568
2010-07-06 07:40:14 51°24.055 2°53.467 23.278 0.000577 0.011801 -1.000568
2010-07-06 07:40:19 51°24.075 2°53.464 23.2725 0.000473 0.011473 -0.965744
2010-07-06 07:40:24 51°24.095 2°53.463 23.2799 0.000577 0.011799 -1.000568
2010-07-06 07:40:29 51°24.115 2°53.461 23.2783 0.000473 0.011472 -0.965744
2010-07-06 07:40:34 51°24.135 2°53.459 23.2773 0.000473 0.011472 -0.965744
2010-07-06 07:40:39 51°24.154 2°53.457 23.2819 0.000577 0.0118 -1.000568
2010-07-06 07:40:44 51°24.173 2°53.455 23.2862 0.000473 0.011472 -1.035392
2010-07-06 07:40:49 51°24.194 2°53.453 23.2806 0.000577 0.011799 -1.000568
2010-07-06 07:40:53 51°24.21 2°53.452 23.2859 0.000473 0.011471 -1.000568
2010-07-06 07:40:59 51°24.234 2°53.45 23.2891 0.000473 0.011471 -1.000568
2010-07-06 07:41:04 51°24.254 2°53.448 23.2971 0.000473 0.011471 -1.000568
2010-07-06 07:41:09 51°24.274 2°53.447 23.2973 0.000473 0.01147 -1.000568
2010-07-06 07:41:14 51°24.294 2°53.444 23.2935 0.000473 0.01147 -1.000568
2010-07-06 07:41:19 51°24.313 2°53.443 23.2872 0.000577 0.011797 -1.000568
2010-07-06 07:41:24 51°24.333 2°53.44 23.3005 0.000473 0.01147 -1.035392
2010-07-06 07:41:29 51°24.352 2°53.439 23.3064 0.000577 0.011799 -1.000568
2010-07-06 07:41:34 51°24.371 2°53.436 23.3029 0.000577 0.011799 -1.000568
2010-07-06 07:41:39 51°24.391 2°53.434 23.3079 0.000473 0.011471 -1.000568
2010-07-06 07:41:44 51°24.411 2°53.433 23.2991 0.000577 0.011796 -1.000568
2010-07-06 07:41:49 51°24.431 2°53.43 23.3085 0.000473 0.011469 -1.035392
2010-07-06 07:41:53 51°24.447 2°53.429 23.3085 0.000473 0.011469 -1.035392
2010-07-06 07:41:59 51°24.47 2°53.426 23.3126 0.000473 0.01147 -1.000568
2010-07-06 07:42:04 51°24.489 2°53.424 23.3118 0.000473 0.011469 -1.000568
2010-07-06 07:42:09 51°24.509 2°53.423 23.3169 0.000473 0.011469 -1.000568
2010-07-06 07:42:13 51°24.525 2°53.421 23.3135 0.000473 0.011468 -0.965744
2010-07-06 07:42:19 51°24.549 2°53.419 23.3232 0.000473 0.011468 -1.000568
2010-07-06 07:42:24 51°24.569 2°53.418 23.3225 0.000473 0.011467 -1.035392
2010-07-06 07:42:29 51°24.589 2°53.415 23.3278 0.000473 0.011467 -1.000568
2010-07-06 07:42:34 51°24.609 2°53.414 23.3226 0.000473 0.011467 -1.000568
2010-07-06 07:42:38 51°24.625 2°53.412 23.3336 0.000473 0.011466 -1.035392
2010-07-06 07:42:44 51°24.648 2°53.41 23.328 0.000577 0.011793 -1.000568
2010-07-06 07:42:48 51°24.664 2°53.408 23.3262 0.000473 0.011465 -0.965744
2010-07-06 07:42:54 51°24.687 2°53.405 23.3293 0.000473 0.011465 -1.000568
2010-07-06 07:42:59 51°24.707 2°53.403 23.3345 0.000577 0.011793 -1.035392
2010-07-06 07:43:04 51°24.727 2°53.401 23.3363 0.000577 0.011793 -1.035392
2010-07-06 07:43:09 51°24.747 2°53.4 23.3429 0.000473 0.011465 -1.000568
2010-07-06 07:43:14 51°24.767 2°53.398 23.3398 0.000473 0.011465 -1.000568
2010-07-06 07:43:19 51°24.787 2°53.395 23.3514 0.000473 0.011465 -1.035392
2010-07-06 07:43:24 51°24.807 2°53.393 23.3478 0.000473 0.011465 -0.965744
2010-07-06 07:43:29 51°24.826 2°53.391 23.3464 0.000473 0.011463 -1.035392
2010-07-06 07:43:34 51°24.846 2°53.388 23.3415 0.000473 0.011463 -1.035392
2010-07-06 07:43:39 51°24.866 2°53.386 23.3581 0.000473 0.011463 -1.035392
2010-07-06 07:43:44 51°24.886 2°53.384 23.3574 0.000473 0.011463 -1.000568
2010-07-06 07:43:49 51°24.906 2°53.382 23.3487 0.000473 0.011463 -1.035392
2010-07-06 07:43:54 51°24.927 2°53.378 23.3541 0.000473 0.011463 -1.000568
2010-07-06 07:43:59 51°24.947 2°53.377 23.3554 0.000577 0.01179 -1.000568
2010-07-06 07:44:03 51°24.963 2°53.374 23.3569 0.000473 0.011463 -1.035392
2010-07-06 07:44:09 51°24.987 2°53.373 23.3606 0.000473 0.011463 -1.035392
2010-07-06 07:44:14 51°25.007 2°53.37 23.3573 0.000473 0.011463 -1.000568
2010-07-06 07:44:19 51°25.027 2°53.369 23.3638 0.000473 0.011464 -1.000568
2010-07-06 07:44:24 51°25.047 2°53.366 23.3543 0.000473 0.011464 -1.000568
2010-07-06 07:44:29 51°25.068 2°53.364 23.3735 0.000473 0.011464 -1.000568
2010-07-06 07:44:34 51°25.087 2°53.362 23.3629 0.000473 0.011464 -1.000568
2010-07-06 07:44:39 51°25.107 2°53.36 23.3735 0.000473 0.011464 -1.000568
2010-07-06 07:44:44 51°25.127 2°53.358 23.3594 0.000473 0.011464 -1.000568
2010-07-06 07:44:49 51°25.147 2°53.355 23.3805 0.000473 0.011464 -1.000568
2010-07-06 07:44:54 51°25.167 2°53.353 23.3684 0.000473 0.011463 -0.965744
2010-07-06 07:44:59 51°25.187 2°53.35 23.3715 0.000369 0.011159 -1.000568
2010-07-06 07:45:03 51°25.203 2°53.348 23.3754 0.000369 0.011159 -1.000568
2010-07-06 07:45:09 51°25.227 2°53.345 23.3691 0.000473 0.011462 -0.965744
2010-07-06 07:45:14 51°25.246 2°53.343 23.3694 0.000369 0.011159 -1.000568
2010-07-06 07:45:19 51°25.266 2°53.339 23.367 0.000369 0.011159 -0.965744
2010-07-06 07:45:23 51°25.282 2°53.338 23.3705 0.000369 0.01116 -1.000568
2010-07-06 07:45:28 51°25.302 2°53.334 23.3679 0.000369 0.01116 -1.035392
2010-07-06 07:45:34 51°25.326 2°53.331 23.3743 0.000369 0.01116 -1.000568
2010-07-06 07:45:39 51°25.345 2°53.329 23.3873 0.000369 0.01116 -1.000568
2010-07-06 07:45:43 51°25.361 2°53.328 23.372 0.000369 0.01116 -1.000568
2010-07-06 07:45:48 51°25.381 2°53.325 23.3854 0.000369 0.01116 -1.000568
2010-07-06 07:45:53 51°25.4 2°53.324 23.3723 0.000369 0.01116 -0.965744
2010-07-06 07:45:59 51°25.424 2°53.319 23.3768 0.000369 0.011162 -1.035392
2010-07-06 07:46:03 51°25.439 2°53.318 23.3768 0.000369 0.011164 -0.965744
2010-07-06 07:46:08 51°25.459 2°53.315 23.3856 0.000369 0.011164 -0.965744
2010-07-06 07:46:13 51°25.478 2°53.313 23.3914 0.000265 0.010899 -1.000568
2010-07-06 07:46:18 51°25.498 2°53.311 23.3895 0.000369 0.011168 -1.000568
2010-07-06 07:46:23 51°25.517 2°53.308 23.3917 0.000265 0.0109 -1.035392
2010-07-06 07:46:28 51°25.537 2°53.305 23.3896 0.000265 0.0109 -1.000568
2010-07-06 07:46:33 51°25.556 2°53.302 23.3984 0.000265 0.0109 -1.000568
2010-07-06 07:46:38 51°25.576 2°53.3 23.3944 0.000369 0.011166 -0.965744
2010-07-06 07:46:43 51°25.595 2°53.298 23.4034 0.000265 0.010899 -1.035392
2010-07-06 07:46:48 51°25.616 2°53.296 23.397 0.000265 0.010897 -0.965744
2010-07-06 07:46:53 51°25.636 2°53.291 23.4036 0.000265 0.010898 -1.035392
2010-07-06 07:46:58 51°25.655 2°53.288 23.4092 0.000265 0.010898 -1.035392
2010-07-06 07:47:03 51°25.674 2°53.287 23.4091 0.000265 0.010898 -1.035392
2010-07-06 07:47:08 51°25.693 2°53.284 23.415 0.000265 0.010898 -1.035392
2010-07-06 07:47:14 51°25.716 2°53.281 23.4057 0.000265 0.010897 -1.000568
2010-07-06 07:47:19 51°25.736 2°53.279 23.4211 0.000265 0.010897 -1.000568
2010-07-06 07:47:23 51°25.752 2°53.278 23.4129 0.000265 0.010896 -1.000568
2010-07-06 07:47:28 51°25.771 2°53.276 23.4201 0.000265 0.010895 -1.000568
2010-07-06 07:47:34 51°25.794 2°53.273 23.4222 0.000265 0.010895 -1.000568
2010-07-06 07:47:39 51°25.814 2°53.271 23.4248 0.000265 0.010895 -1.000568
2010-07-06 07:47:43 51°25.829 2°53.268 23.4228 0.000369 0.011161 -1.000568
2010-07-06 07:47:48 51°25.849 2°53.266 23.43 0.000369 0.01116 -0.965744
2010-07-06 07:47:53 51°25.869 2°53.264 23.4269 0.000265 0.010893 -1.000568
2010-07-06 07:47:59 51°25.892 2°53.261 23.4356 0.000265 0.010892 -0.965744
2010-07-06 07:48:03 51°25.908 2°53.259 23.4318 0.000369 0.01116 -1.000568
2010-07-06 07:48:08 51°25.927 2°53.257 23.4315 0.000369 0.01116 -1.000568
2010-07-06 07:48:13 51°25.947 2°53.254 23.4353 0.000265 0.010892 -1.000568
2010-07-06 07:48:19 51°25.97 2°53.251 23.4332 0.000369 0.01116 -1.000568
2010-07-06 07:48:23 51°25.986 2°53.249 23.4409 0.000369 0.011159 -1.000568
2010-07-06 07:48:28 51°26.006 2°53.247 23.4411 0.000265 0.010892 -1.000568
2010-07-06 07:48:33 51°26.025 2°53.244 23.4423 0.000265 0.010892 -1.000568
2010-07-06 07:48:38 51°26.045 2°53.241 23.4417 0.000369 0.011158 -1.035392
2010-07-06 07:48:43 51°26.065 2°53.239 23.4429 0.000265 0.010891 -1.000568
2010-07-06 07:48:48 51°26.084 2°53.236 23.4403 0.000265 0.010891 -1.000568
2010-07-06 07:48:53 51°26.104 2°53.235 23.44 0.000265 0.010891 -1.000568
2010-07-06 07:48:58 51°26.124 2°53.232 23.4527 0.000265 0.010893 -1.035392
2010-07-06 07:49:03 51°26.143 2°53.231 23.4457 0.000265 0.010893 -1.000568
2010-07-06 07:49:08 51°26.163 2°53.228 23.4619 0.000265 0.010893 -1.000568
2010-07-06 07:49:14 51°26.186 2°53.226 23.4536 0.000265 0.010892 -0.965744
2010-07-06 07:49:19 51°26.206 2°53.221 23.4569 0.000265 0.010892 -1.000568
2010-07-06 07:49:23 51°26.221 2°53.22 23.466 0.000265 0.01089 -1.035392
2010-07-06 07:49:28 51°26.241 2°53.216 23.4567 0.000265 0.01089 -1.000568
2010-07-06 07:49:34 51°26.264 2°53.213 23.4635 0.000265 0.01089 -1.000568
2010-07-06 07:49:39 51°26.283 2°53.209 23.4664 0.000265 0.01089 -1.000568
2010-07-06 07:49:43 51°26.299 2°53.207 23.463 0.000265 0.010889 -1.000568
2010-07-06 07:49:48 51°26.319 2°53.204 23.4777 0.000265 0.010888 -1.000568
2010-07-06 07:49:54 51°26.342 2°53.2 23.4616 0.000265 0.010887 -1.000568
2010-07-06 07:49:59 51°26.361 2°53.198 23.4782 0.000265 0.010887 -1.000568
2010-07-06 07:50:03 51°26.377 2°53.196 23.4638 0.000265 0.010887 -1.000568
2010-07-06 07:50:08 51°26.397 2°53.193 23.4503 0.000265 0.010887 -0.965744
2010-07-06 07:50:14 51°26.42 2°53.19 23.6673 0.000265 0.010886 -1.000568
2010-07-06 07:50:19 51°26.439 2°53.186 23.6535 0.000265 0.010885 -1.000568
2010-07-06 07:50:23 51°26.455 2°53.185 23.6328 0.002344 0.018704 -0.965744
2010-07-06 07:50:28 51°26.474 2°53.181 23.6258 0.002344 0.018702 -0.965744
2010-07-06 07:50:34 51°26.497 2°53.179 23.6295 0.002344 0.018702 -0.965744
2010-07-06 07:50:39 51°26.517 2°53.176 23.6001 0.002032 0.017373 -1.000568
2010-07-06 07:50:43 51°26.532 2°53.174 23.6203 0.001408 0.014814 -1.070216
2010-07-06 07:50:48 51°26.552 2°53.171 23.6208 0.001304 0.01439 -0.965744
2010-07-06 07:50:54 51°26.575 2°53.168 23.6007 0.00224 0.018242 -1.035392
2010-07-06 07:50:59 51°26.594 2°53.164 23.6085 0.001304 0.014378 -1.000568
2010-07-06 07:51:03 51°26.61 2°53.162 23.6215 0.002448 0.019132 -1.035392
2010-07-06 07:51:08 51°26.63 2°53.159 23.6129 0.002448 0.019132 -1.035392
2010-07-06 07:51:14 51°26.653 2°53.156 23.5907 0.001616 0.015627 -0.965744
2010-07-06 07:51:19 51°26.673 2°53.152 23.6099 0.002032 0.017355 -1.035392
2010-07-06 07:51:23 51°26.688 2°53.15 23.5992 0.002656 0.020034 -1.035392
2010-07-06 07:51:28 51°26.707 2°53.146 23.5976 0.001408 0.014793 -1.000568
2010-07-06 07:51:34 51°26.731 2°53.142 23.6119 0.001408 0.014793 -1.000568
2010-07-06 07:51:39 51°26.75 2°53.139 23.5997 0.00723 0.04109 -1.000568
2010-07-06 07:51:43 51°26.765 2°53.136 23.6051 0.002864 0.020942 -1.000568
2010-07-06 07:51:49 51°26.789 2°53.132 23.5916 0.002656 0.020034 -1.000568
2010-07-06 07:51:54 51°26.808 2°53.129 23.6005 0.00172 0.016062 -1.035392
2010-07-06 07:51:59 51°26.828 2°53.125 23.6096 0.002968 0.0214 -1.035392
2010-07-06 07:52:03 51°26.843 2°53.123 23.5876 0.002968 0.0214 -1.035392
2010-07-06 07:52:08 51°26.863 2°53.12 23.6053 0.002136 0.017801 -1.000568
2010-07-06 07:52:14 51°26.886 2°53.116 23.599 0.001824 0.016493 -1.000568
2010-07-06 07:52:19 51°26.906 2°53.113 23.6046 0.00224 0.018244 -1.000568
2010-07-06 07:52:23 51°26.922 2°53.11 23.5973 0.001512 0.015215 -1.035392
2010-07-06 07:52:28 51°26.941 2°53.108 23.6057 0.002344 0.018687 -1.000568
2010-07-06 07:52:34 51°26.964 2°53.103 23.6093 0.002032 0.017361 -1.000568
2010-07-06 07:52:39 51°26.984 2°53.1 23.6001 0.002032 0.017361 -1.000568
2010-07-06 07:52:43 51°27 2°53.097 23.6021 0.00172 0.016061 -0.965744
2010-07-06 07:52:48 51°27.019 2°53.094 23.6001 0.00172 0.016062 -1.000568
2010-07-06 07:52:53 51°27.039 2°53.091 23.5973 0.001408 0.014797 -1.035392
2010-07-06 07:52:59 51°27.063 2°53.087 23.5978 0.002552 0.019584 -1.000568
2010-07-06 07:53:03 51°27.078 2°53.085 23.6092 0.002552 0.019584 -1.000568
2010-07-06 07:53:08 51°27.098 2°53.081 23.5983 0.003176 0.022319 -1.000568
2010-07-06 07:53:13 51°27.117 2°53.078 23.6115 0.00224 0.018243 -1.035392
2010-07-06 07:53:19 51°27.141 2°53.075 23.6103 0.002448 0.019135 -1.000568
2010-07-06 07:53:23 51°27.156 2°53.072 23.6179 0.001512 0.015216 -1.000568
2010-07-06 07:53:28 51°27.176 2°53.069 23.5971 0.002448 0.019134 -1.035392
2010-07-06 07:53:34 51°27.2 2°53.064 23.6032 0.002448 0.019134 -1.035392
2010-07-06 07:53:39 51°27.219 2°53.061 23.608 0.00276 0.020487 -1.000568
2010-07-06 07:53:43 51°27.235 2°53.058 23.6028 0.00224 0.018242 -0.965744
2010-07-06 07:53:48 51°27.254 2°53.055 23.6145 0.001824 0.016492 -1.000568
2010-07-06 07:53:54 51°27.278 2°53.052 23.6093 0.00276 0.020488 -1.000568
2010-07-06 07:53:59 51°27.298 2°53.049 23.6079 0.00172 0.016063 -0.93092
2010-07-06 07:54:03 51°27.314 2°53.047 23.6117 0.00172 0.016063 -0.93092
2010-07-06 07:54:08 51°27.333 2°53.044 23.614 0.003488 0.023709 -1.000568
2010-07-06 07:54:14 51°27.357 2°53.04 23.617 0.002032 0.017362 -1.035392
2010-07-06 07:54:19 51°27.377 2°53.037 23.6082 0.003072 0.021859 -0.965744
2010-07-06 07:54:23 51°27.393 2°53.035 23.6032 0.00276 0.020488 -1.035392
2010-07-06 07:54:28 51°27.413 2°53.033 23.5949 0.00172 0.016063 -1.000568
2010-07-06 07:54:34 51°27.436 2°53.029 23.6085 0.002448 0.019135 -1.000568
2010-07-06 07:54:39 51°27.456 2°53.028 23.5989 0.002448 0.019135 -1.000568
2010-07-06 07:54:43 51°27.471 2°53.025 23.6206 0.001512 0.015217 -1.035392
2010-07-06 07:54:48 51°27.49 2°53.023 23.6155 0.001928 0.016927 -1.000568
2010-07-06 07:54:54 51°27.514 2°53.02 23.609 0.001928 0.016928 -1.035392
2010-07-06 07:54:59 51°27.534 2°53.017 23.6019 0.004111 0.026522 -1.035392
2010-07-06 07:55:03 51°27.55 2°53.015 23.6071 0.002864 0.020944 -1.000568
2010-07-06 07:55:08 51°27.57 2°53.012 23.6079 0.002864 0.020944 -1.000568
2010-07-06 07:55:14 51°27.593 2°53.009 23.6017 0.001616 0.01564 -1.035392
2010-07-06 07:55:19 51°27.613 2°53.006 23.6201 0.001512 0.015218 -0.965744
2010-07-06 07:55:23 51°27.628 2°53.004 23.6069 0.00224 0.018245 -1.000568
2010-07-06 07:55:28 51°27.648 2°52.999 23.6204 0.001616 0.015639 -1.000568
2010-07-06 07:55:34 51°27.671 2°52.996 23.6149 0.001616 0.015639 -1.000568
2010-07-06 07:55:39 51°27.691 2°52.993 23.6164 0.001616 0.01564 -1.035392
2010-07-06 07:55:43 51°27.707 2°52.992 23.62 0.006815 0.039091 -0.965744
2010-07-06 07:55:48 51°27.727 2°52.988 23.6227 0.002032 0.017365 -1.000568
2010-07-06 07:55:54 51°27.75 2°52.986 23.6149 0.002344 0.018689 -1.070216
2010-07-06 07:55:59 51°27.77 2°52.982 23.6183 0.001616 0.015639 -1.000568
2010-07-06 07:56:03 51°27.786 2°52.98 23.6144 0.001616 0.015639 -1.000568
2010-07-06 07:56:08 51°27.806 2°52.977 23.6084 0.001824 0.016495 -1.035392
2010-07-06 07:56:14 51°27.829 2°52.974 23.625 0.001512 0.015218 -1.000568
2010-07-06 07:56:19 51°27.849 2°52.972 23.6132 0.001824 0.016496 -0.965744
2010-07-06 07:56:23 51°27.865 2°52.97 23.6224 0.002656 0.020036 -1.000568
2010-07-06 07:56:28 51°27.885 2°52.968 23.6115 0.00224 0.018244 -1.000568
2010-07-06 07:56:34 51°27.908 2°52.965 23.6247 0.004111 0.026522 -1.000568
2010-07-06 07:56:39 51°27.928 2°52.962 23.605 0.004111 0.026522 -1.000568
2010-07-06 07:56:43 51°27.943 2°52.96 23.6179 0.00276 0.020488 -1.000568
2010-07-06 07:56:48 51°27.963 2°52.958 23.6179 0.002032 0.017363 -0.965744
2010-07-06 07:56:54 51°27.987 2°52.954 23.6134 0.002864 0.020944 -1.035392
2010-07-06 07:56:59 51°28.006 2°52.953 23.622 0.001408 0.014799 -1.035392
2010-07-06 07:57:03 51°28.022 2°52.95 23.6219 0.001616 0.01564 -1.000568
2010-07-06 07:57:08 51°28.042 2°52.948 23.6204 0.001616 0.01564 -1.000568
2010-07-06 07:57:14 51°28.066 2°52.945 23.6115 0.002968 0.021401 -1.035392
2010-07-06 07:57:19 51°28.086 2°52.943 23.626 0.002344 0.018689 -1.035392
2010-07-06 07:57:23 51°28.102 2°52.941 23.6227 0.002552 0.019585 -1.000568
2010-07-06 07:57:27 51°28.118 2°52.939 23.6244 0.002032 0.017364 -1.000568
2010-07-06 07:57:34 51°28.146 2°52.935 23.6175 0.002032 0.017364 -1.000568
2010-07-06 07:57:39 51°28.167 2°52.932 23.6154 0.002552 0.019585 -1.000568
2010-07-06 07:57:43 51°28.182 2°52.931 23.618 0.002968 0.021401 -0.965744
2010-07-06 07:57:48 51°28.202 2°52.928 23.6254 0.001616 0.01564 -1.035392
2010-07-06 07:57:54 51°28.226 2°52.925 23.6081 0.002032 0.017363 -1.000568
2010-07-06 07:57:59 51°28.247 2°52.921 23.6194 0.002864 0.020944 -1.000568
2010-07-06 07:58:03 51°28.263 2°52.919 23.632 0.002864 0.020944 -1.000568
2010-07-06 07:58:08 51°28.283 2°52.916 23.6266 0.004319 0.027469 -0.965744
2010-07-06 07:58:14 51°28.307 2°52.914 23.6176 0.002448 0.019135 -1.035392
2010-07-06 07:58:19 51°28.327 2°52.911 23.6203 0.001616 0.015636 -1.000568
2010-07-06 07:58:23 51°28.343 2°52.91 23.629 0.004319 0.027471 -1.000568
2010-07-06 07:58:28 51°28.363 2°52.908 23.6281 0.002968 0.0214 -1.000568
2010-07-06 07:58:34 51°28.386 2°52.905 23.6336 0.002968 0.0214 -1.000568
2010-07-06 07:58:39 51°28.406 2°52.902 23.6199 0.001928 0.016926 -0.965744
2010-07-06 07:58:43 51°28.422 2°52.899 23.6314 0.002448 0.019135 -1.000568
2010-07-06 07:58:48 51°28.442 2°52.897 23.6195 0.001616 0.015638 -1.000568
2010-07-06 07:58:54 51°28.466 2°52.893 23.632 0.002552 0.019585 -0.965744
2010-07-06 07:58:59 51°28.486 2°52.892 23.6265 0.00172 0.016065 -1.000568
2010-07-06 07:59:03 51°28.502 2°52.889 23.6391 0.00172 0.016065 -1.000568
2010-07-06 07:59:08 51°28.522 2°52.887 23.6233 0.003176 0.022319 -1.035392
2010-07-06 07:59:14 51°28.546 2°52.884 23.6368 0.002032 0.017363 -0.93092
2010-07-06 07:59:19 51°28.566 2°52.882 23.6276 0.00172 0.016063 -1.000568
2010-07-06 07:59:23 51°28.582 2°52.881 23.6336 0.004215 0.026997 -1.000568
2010-07-06 07:59:28 51°28.602 2°52.878 23.6366 0.00276 0.020488 -1.000568
2010-07-06 07:59:34 51°28.626 2°52.875 23.6379 0.00276 0.020488 -1.000568
2010-07-06 07:59:39 51°28.645 2°52.872 23.6343 0.001616 0.015636 -1.000568
2010-07-06 07:59:43 51°28.661 2°52.87 23.6237 0.002136 0.0178 -1.000568
2010-07-06 07:59:48 51°28.68 2°52.868 23.6451 0.00328 0.022781 -1.000568
2010-07-06 07:59:54 51°28.703 2°52.864 23.6259 0.001512 0.015211 -1.000568
2010-07-06 07:59:58 51°28.719 2°52.863 23.6367 0.00224 0.018241 -1.000568
2010-07-06 08:00:04 51°28.743 2°52.86 23.6367 0.002032 0.01736 -1.035392
2010-07-06 08:00:08 51°28.759 2°52.858 23.6312 0.002032 0.01736 -1.035392
2010-07-06 08:00:14 51°28.782 2°52.854 23.6349 0.001824 0.016491 -1.035392
2010-07-06 08:00:18 51°28.798 2°52.853 23.6393 0.00172 0.01606 -1.035392
2010-07-06 08:00:23 51°28.818 2°52.85 23.6415 0.003176 0.022319 -1.000568
2010-07-06 08:00:28 51°28.838 2°52.847 23.6391 0.002344 0.018686 -1.000568
2010-07-06 08:00:33 51°28.858 2°52.845 23.623 0.002344 0.018686 -1.000568
2010-07-06 08:00:38 51°28.878 2°52.842 23.6326 0.002032 0.017359 -0.965744
2010-07-06 08:00:43 51°28.897 2°52.839 23.6328 0.003072 0.021859 -1.000568
2010-07-06 08:00:48 51°28.917 2°52.836 23.64 0.001512 0.015211 -0.965744
2010-07-06 08:00:54 51°28.941 2°52.834 23.6431 0.001824 0.01649 -1.000568
2010-07-06 08:00:59 51°28.961 2°52.832 23.6435 0.002032 0.01736 -1.000568
2010-07-06 08:01:03 51°28.977 2°52.83 23.6423 0.002032 0.01736 -1.000568
2010-07-06 08:01:08 51°28.997 2°52.827 23.6363 0.002032 0.01736 -0.965744
2010-07-06 08:01:14 51°29.021 2°52.824 23.6422 0.002344 0.018686 -1.000568
2010-07-06 08:01:19 51°29.04 2°52.822 23.6442 0.001824 0.01649 -1.000568
2010-07-06 08:01:23 51°29.056 2°52.821 23.6454 0.003903 0.025581 -0.965744
2010-07-06 08:01:28 51°29.076 2°52.819 23.6489 0.003176 0.022319 -1.000568
2010-07-06 08:01:33 51°29.095 2°52.816 23.6423 0.003176 0.022319 -1.000568
2010-07-06 08:01:39 51°29.119 2°52.813 23.6476 0.002448 0.019133 -1.000568
2010-07-06 08:01:43 51°29.134 2°52.811 23.6461 0.001824 0.016488 -1.035392
2010-07-06 08:01:48 51°29.155 2°52.808 23.6487 0.004007 0.026054 -1.035392
2010-07-06 08:01:54 51°29.18 2°52.804 23.6488 0.001408 0.014792 -1.035392
2010-07-06 08:01:59 51°29.2 2°52.802 23.6391 0.00172 0.016058 -0.965744
2010-07-06 08:02:03 51°29.216 2°52.799 23.6461 0.004423 0.027951 -1.000568
2010-07-06 08:02:08 51°29.236 2°52.797 23.6466 0.004423 0.027951 -1.000568
2010-07-06 08:02:14 51°29.26 2°52.794 23.6411 0.001408 0.01479 -0.965744
2010-07-06 08:02:19 51°29.279 2°52.794 23.6328 0.004111 0.026528 -1.035392
2010-07-06 08:02:23 51°29.295 2°52.791 23.644 0.001408 0.014789 -1.000568
2010-07-06 08:02:28 51°29.315 2°52.793 23.6208 0.00172 0.016056 -1.000568
2010-07-06 08:02:34 51°29.339 2°52.791 23.6405 0.00172 0.016056 -1.000568
2010-07-06 08:02:39 51°29.358 2°52.791 23.6248 0.006815 0.03912 -1.000568
2010-07-06 08:02:43 51°29.374 2°52.792 23.6269 0.002136 0.017798 -1.000568
2010-07-06 08:02:48 51°29.393 2°52.794 23.6285 0.001304 0.014381 -1.035392
2010-07-06 08:02:54 51°29.417 2°52.796 23.6321 0.001304 0.014379 -1.000568
2010-07-06 08:02:59 51°29.436 2°52.798 23.6323 0.001512 0.015203 -0.965744
2010-07-06 08:03:03 51°29.452 2°52.8 23.6258 0.001512 0.015203 -0.965744
2010-07-06 08:03:09 51°29.476 2°52.803 23.6308 0.0012 0.013965 -0.965744
2010-07-06 08:03:14 51°29.496 2°52.806 23.6311 0.000992 0.013171 -1.000568
2010-07-06 08:03:19 51°29.515 2°52.81 23.6432 0.000888 0.012784 -0.965744
2010-07-06 08:03:23 51°29.531 2°52.813 23.6408 0.001096 0.01356 -0.965744
2010-07-06 08:03:28 51°29.551 2°52.816 23.6365 0.000992 0.013168 -1.035392
2010-07-06 08:03:34 51°29.574 2°52.82 23.6353 0.000888 0.012783 -1.035392
2010-07-06 08:03:39 51°29.594 2°52.823 23.634 0.000888 0.012783 -1.035392
2010-07-06 08:03:43 51°29.609 2°52.824 23.6334 0.001096 0.013564 -1.000568
2010-07-06 08:03:48 51°29.629 2°52.826 23.631 0.001096 0.013564 -1.035392
2010-07-06 08:03:53 51°29.648 2°52.829 23.6374 0.000784 0.012408 -1.000568
2010-07-06 08:03:59 51°29.671 2°52.83 23.6324 0.000992 0.01317 -1.000568
2010-07-06 08:04:03 51°29.687 2°52.832 23.6336 0.000888 0.012783 -0.965744
2010-07-06 08:04:08 51°29.707 2°52.831 23.6395 0.000888 0.012783 -0.965744
2010-07-06 08:04:14 51°29.729 2°52.833 23.6373 0.000888 0.012782 -0.965744
2010-07-06 08:04:19 51°29.748 2°52.833 23.644 0.000784 0.012406 -1.000568
2010-07-06 08:04:23 51°29.764 2°52.834 23.6382 0.000888 0.012784 -1.000568
2010-07-06 08:04:28 51°29.784 2°52.835 23.6459 0.000992 0.01317 -1.000568
2010-07-06 08:04:34 51°29.807 2°52.835 23.631 0.000992 0.01317 -1.000568
2010-07-06 08:04:39 51°29.827 2°52.835 23.6445 0.000888 0.012783 -1.000568
2010-07-06 08:04:43 51°29.843 2°52.836 23.6411 0.000888 0.012783 -1.000568
2010-07-06 08:04:48 51°29.862 2°52.836 23.6381 0.000888 0.012782 -1.000568
2010-07-06 08:04:54 51°29.886 2°52.837 23.632 0.000888 0.012782 -1.000568
2010-07-06 08:04:59 51°29.905 2°52.836 23.6448 0.000888 0.012782 -1.000568
2010-07-06 08:05:03 51°29.921 2°52.837 23.6431 0.000888 0.012782 -1.000568
2010-07-06 08:05:08 51°29.941 2°52.837 23.6375 0.000784 0.012406 -1.000568
2010-07-06 08:05:14 51°29.966 2°52.839 23.6509 0.000784 0.012405 -1.000568
2010-07-06 08:05:19 51°29.986 2°52.839 23.6401 0.000784 0.012405 -1.000568
2010-07-06 08:05:23 51°30.002 2°52.84 23.6484 0.000784 0.012404 -1.000568
2010-07-06 08:05:28 51°30.022 2°52.841 23.6407 0.000784 0.012403 -1.000568
2010-07-06 08:05:34 51°30.046 2°52.842 23.6534 0.000784 0.012403 -1.000568
2010-07-06 08:05:39 51°30.066 2°52.843 23.6525 0.000784 0.012403 -1.000568
2010-07-06 08:05:43 51°30.082 2°52.843 23.6514 0.000888 0.01278 -1.000568
2010-07-06 08:05:48 51°30.102 2°52.844 23.6482 0.000888 0.012779 -1.000568
2010-07-06 08:05:54 51°30.126 2°52.845 23.6485 0.000888 0.012779 -1.000568
2010-07-06 08:05:59 51°30.145 2°52.845 23.6493 0.000888 0.012779 -1.000568
2010-07-06 08:06:03 51°30.161 2°52.846 23.6509 0.000784 0.012401 -1.000568
2010-07-06 08:06:08 51°30.181 2°52.847 23.652 0.000784 0.012401 -1.000568
2010-07-06 08:06:14 51°30.205 2°52.848 23.6559 0.000784 0.012401 -1.000568
2010-07-06 08:06:19 51°30.225 2°52.849 23.6501 0.000888 0.012777 -0.965744
2010-07-06 08:06:23 51°30.241 2°52.848 23.654 0.000784 0.0124 -0.965744
2010-07-06 08:06:28 51°30.26 2°52.849 23.6479 0.000888 0.012776 -1.000568
2010-07-06 08:06:33 51°30.279 2°52.851 23.6557 0.000888 0.012776 -1.000568
2010-07-06 08:06:38 51°30.298 2°52.853 23.6552 0.000888 0.012777 -0.965744
2010-07-06 08:06:43 51°30.318 2°52.853 23.651 0.000888 0.012777 -1.035392
2010-07-06 08:06:48 51°30.335 2°52.857 23.6527 0.000784 0.0124 -1.035392
2010-07-06 08:06:54 51°30.356 2°52.861 23.6501 0.000681 0.012035 -1.035392
2010-07-06 08:06:58 51°30.373 2°52.861 23.6585 0.000888 0.012776 -1.035392
2010-07-06 08:07:03 51°30.394 2°52.861 23.6538 0.000888 0.012776 -1.000568
2010-07-06 08:07:08 51°30.41 2°52.866 23.6576 0.000888 0.012776 -1.000568
2010-07-06 08:07:13 51°30.426 2°52.871 23.6513 0.000888 0.012775 -1.070216
2010-07-06 08:07:19 51°30.461 2°52.861 23.6567 0.000992 0.013161 -0.965744
2010-07-06 08:07:23 51°30.48 2°52.86 23.6543 0.000888 0.012774 -1.000568
2010-07-06 08:07:28 51°30.5 2°52.86 23.6565 0.000992 0.013161 -1.000568
2010-07-06 08:07:34 51°30.525 2°52.861 23.6598 0.000784 0.012397 -0.965744
2010-07-06 08:07:39 51°30.545 2°52.862 23.6612 0.000784 0.012397 -0.965744
2010-07-06 08:07:43 51°30.561 2°52.862 23.6646 0.000888 0.012774 -1.000568
2010-07-06 08:07:48 51°30.581 2°52.863 23.658 0.000888 0.012775 -1.000568
2010-07-06 08:07:54 51°30.605 2°52.864 23.6593 0.000784 0.012398 -1.035392
2010-07-06 08:07:59 51°30.625 2°52.865 23.6606 0.000784 0.012398 -1.000568
2010-07-06 08:08:03 51°30.641 2°52.866 23.6688 0.000784 0.012398 -1.000568